Wetterdaten: Dienstag, 03.05.2022
Datum Zeit Temp. Aussen Temp. o. S. Temp +5cm Feuchte Auss Luftdruck Regen Sonnenschein Regendauer Solar Windben Empfang
03.05.2022 00:00 13,1 C 12,2 C 8,9 C 68 % 1018,4 hPa 0,0 l/m 0 min 0 min 0 W/m 19,3 km/h (3 Bft) 97,87 %
03.05.2022 00:02 13,1 C 12,2 C 8,3 C 68 % 1018,4 hPa 0,0 l/m 0 min 0 min 0 W/m 9,7 km/h (2 Bft) 15,38 %
03.05.2022 00:04 13,1 C 12,2 C 8,3 C 68 % 1018,4 hPa 0,0 l/m 0 min 0 min 0 W/m 16,1 km/h (3 Bft) 72,50 %
03.05.2022 00:07 12,9 C 12,2 C 8,3 C 69 % 1018,4 hPa 0,0 l/m 0 min 0 min 0 W/m 9,7 km/h (2 Bft) 95,71 %
03.05.2022 00:08 12,9 C 11,7 C 8,3 C 69 % 1018,4 hPa 0,0 l/m 0 min 0 min 0 W/m 16,1 km/h (3 Bft) 100,00 %
03.05.2022 00:10 12,9 C 11,7 C 8,3 C 69 % 1018,4 hPa 0,0 l/m 0 min 0 min 0 W/m 9,7 km/h (2 Bft) 97,87 %
03.05.2022 00:12 12,8 C 11,7 C 8,3 C 69 % 1018,4 hPa 0,0 l/m 0 min 0 min 0 W/m 9,7 km/h (2 Bft) 95,74 %
03.05.2022 00:14 12,8 C 11,7 C 8,3 C 69 % 1018,4 hPa 0,0 l/m 0 min 0 min 0 W/m 16,1 km/h (3 Bft) 95,65 %
03.05.2022 00:16 12,7 C 11,7 C 8,3 C 69 % 1018,4 hPa 0,0 l/m 0 min 0 min 0 W/m 9,7 km/h (2 Bft) 97,87 %
03.05.2022 00:18 12,7 C 11,7 C 8,3 C 69 % 1018,4 hPa 0,0 l/m 0 min 0 min 0 W/m 12,9 km/h (3 Bft) 97,87 %
03.05.2022 00:20 12,7 C 11,7 C 8,3 C 69 % 1018,5 hPa 0,0 l/m 0 min 0 min 0 W/m 9,7 km/h (2 Bft) 97,87 %
03.05.2022 00:22 12,6 C 11,7 C 8,3 C 70 % 1018,5 hPa 0,0 l/m 0 min 0 min 0 W/m 9,7 km/h (2 Bft) 97,87 %
03.05.2022 00:24 12,6 C 11,7 C 8,3 C 70 % 1018,6 hPa 0,0 l/m 0 min 0 min 0 W/m 6,4 km/h (2 Bft) 97,87 %
03.05.2022 00:26 12,6 C 11,7 C 8,3 C 70 % 1018,5 hPa 0,0 l/m 0 min 0 min 0 W/m 9,7 km/h (2 Bft) 97,83 %
03.05.2022 00:28 12,6 C 11,7 C 8,3 C 70 % 1018,5 hPa 0,0 l/m 0 min 0 min 0 W/m 9,7 km/h (2 Bft) 95,74 %
03.05.2022 00:30 12,5 C 11,7 C 8,3 C 70 % 1018,6 hPa 0,0 l/m 0 min 0 min 0 W/m 9,7 km/h (2 Bft) 93,62 %
03.05.2022 00:32 12,4 C 11,7 C 7,8 C 70 % 1018,5 hPa 0,0 l/m 0 min 0 min 0 W/m 12,9 km/h (3 Bft) 93,62 %
03.05.2022 00:34 12,4 C 11,7 C 7,8 C 70 % 1018,5 hPa 0,0 l/m 0 min 0 min 0 W/m 12,9 km/h (3 Bft) 95,74 %
03.05.2022 00:36 12,4 C 11,7 C 7,8 C 70 % 1018,5 hPa 0,0 l/m 0 min 0 min 0 W/m 6,4 km/h (2 Bft) 95,74 %
03.05.2022 00:38 12,3 C 11,7 C 7,8 C 70 % 1018,5 hPa 0,0 l/m 0 min 0 min 0 W/m 12,9 km/h (3 Bft) 93,48 %
03.05.2022 00:40 12,3 C 11,7 C 7,8 C 70 % 1018,5 hPa 0,0 l/m 0 min 0 min 0 W/m 6,4 km/h (2 Bft) 95,74 %
03.05.2022 00:42 12,3 C 11,7 C 7,8 C 70 % 1018,5 hPa 0,0 l/m 0 min 0 min 0 W/m 12,9 km/h (3 Bft) 95,74 %
03.05.2022 00:44 12,3 C 11,7 C 7,8 C 70 % 1018,5 hPa 0,0 l/m 0 min 0 min 0 W/m 6,4 km/h (2 Bft) 95,74 %
03.05.2022 00:46 12,2 C 11,7 C 7,8 C 70 % 1018,5 hPa 0,0 l/m 0 min 0 min 0 W/m 9,7 km/h (2 Bft) 93,62 %
03.05.2022 00:48 12,2 C 11,7 C 7,8 C 71 % 1018,4 hPa 0,0 l/m 0 min 0 min 0 W/m 12,9 km/h (3 Bft) 93,48 %
03.05.2022 00:50 12,2 C 11,7 C 7,8 C 71 % 1018,5 hPa 0,0 l/m 0 min 0 min 0 W/m 12,9 km/h (3 Bft) 95,74 %
03.05.2022 00:52 12,2 C 11,1 C 7,8 C 71 % 1018,5 hPa 0,0 l/m 0 min 0 min 0 W/m 12,9 km/h (3 Bft) 97,87 %
03.05.2022 00:54 12,1 C 11,1 C 7,8 C 71 % 1018,6 hPa 0,0 l/m 0 min 0 min 0 W/m 9,7 km/h (2 Bft) 95,74 %
03.05.2022 00:56 12,1 C 11,1 C 7,8 C 71 % 1018,5 hPa 0,0 l/m 0 min 0 min 0 W/m 6,4 km/h (2 Bft) 97,87 %
03.05.2022 00:58 12,1 C 11,1 C 7,8 C 71 % 1018,5 hPa 0,0 l/m 0 min 0 min 0 W/m 9,7 km/h (2 Bft) 97,87 %
03.05.2022 01:00 12,1 C 11,1 C 7,8 C 71 % 1018,6 hPa 0,0 l/m 0 min 0 min 0 W/m 9,7 km/h (2 Bft) 97,83 %
03.05.2022 01:02 12,1 C 11,1 C 7,8 C 71 % 1018,6 hPa 0,0 l/m 0 min 0 min 0 W/m 6,4 km/h (2 Bft) 97,87 %
03.05.2022 01:04 12,1 C 11,1 C 7,8 C 71 % 1018,6 hPa 0,0 l/m 0 min 0 min 0 W/m 6,4 km/h (2 Bft) 95,74 %
03.05.2022 01:06 12,1 C 11,1 C 7,8 C 71 % 1018,6 hPa 0,0 l/m 0 min 0 min 0 W/m 3,2 km/h (1 Bft) 100,00 %
03.05.2022 01:08 12,0 C 11,1 C 7,8 C 71 % 1018,6 hPa 0,0 l/m 0 min 0 min 0 W/m 9,7 km/h (2 Bft) 100,00 %
03.05.2022 01:10 12,0 C 11,1 C 7,8 C 71 % 1018,6 hPa 0,0 l/m 0 min 0 min 0 W/m 6,4 km/h (2 Bft) 100,00 %
03.05.2022 01:12 12,0 C 11,1 C 7,8 C 71 % 1018,6 hPa 0,0 l/m 0 min 0 min 0 W/m 6,4 km/h (2 Bft) 97,83 %
03.05.2022 01:14 11,9 C 11,1 C 7,8 C 71 % 1018,6 hPa 0,0 l/m 0 min 0 min 0 W/m 6,4 km/h (2 Bft) 100,00 %
03.05.2022 01:16 11,9 C 11,1 C 7,2 C 72 % 1018,6 hPa 0,0 l/m 0 min 0 min 0 W/m 6,4 km/h (2 Bft) 100,00 %
03.05.2022 01:18 11,9 C 11,1 C 7,2 C 72 % 1018,6 hPa 0,0 l/m 0 min 0 min 0 W/m 6,4 km/h (2 Bft) 97,87 %
03.05.2022 01:20 11,8 C 11,1 C 7,2 C 72 % 1018,6 hPa 0,0 l/m 0 min 0 min 0 W/m 6,4 km/h (2 Bft) 100,00 %
03.05.2022 01:22 11,8 C 10,6 C 7,2 C 72 % 1018,6 hPa 0,0 l/m 0 min 0 min 0 W/m 9,7 km/h (2 Bft) 100,00 %
03.05.2022 01:24 11,8 C 10,6 C 7,2 C 72 % 1018,6 hPa 0,0 l/m 0 min 0 min 0 W/m 6,4 km/h (2 Bft) 100,00 %
03.05.2022 01:26 11,8 C 10,6 C 7,2 C 72 % 1018,6 hPa 0,0 l/m 0 min 0 min 0 W/m 6,4 km/h (2 Bft) 97,83 %
03.05.2022 01:28 11,7 C 10,6 C 7,2 C 72 % 1018,7 hPa 0,0 l/m 0 min 0 min 0 W/m 6,4 km/h (2 Bft) 100,00 %
03.05.2022 01:30 11,7 C 10,6 C 7,2 C 72 % 1018,6 hPa 0,0 l/m 0 min 0 min 0 W/m 6,4 km/h (2 Bft) 100,00 %
03.05.2022 01:32 11,7 C 10,6 C 7,2 C 72 % 1018,6 hPa 0,0 l/m 0 min 0 min 0 W/m 12,9 km/h (3 Bft) 97,87 %
03.05.2022 01:34 11,6 C 10,6 C 7,2 C 72 % 1018,6 hPa 0,0 l/m 0 min 0 min 0 W/m 9,7 km/h (2 Bft) 95,74 %
03.05.2022 01:36 11,6 C 10,6 C 7,2 C 72 % 1018,6 hPa 0,0 l/m 0 min 0 min 0 W/m 9,7 km/h (2 Bft) 97,83 %
03.05.2022 01:38 11,6 C 10,6 C 7,2 C 73 % 1018,6 hPa 0,0 l/m 0 min 0 min 0 W/m 12,9 km/h (3 Bft) 97,87 %
03.05.2022 01:40 11,6 C 10,6 C 7,2 C 73 % 1018,6 hPa 0,0 l/m 0 min 0 min 0 W/m 12,9 km/h (3 Bft) 97,87 %
03.05.2022 01:42 11,5 C 10,6 C 7,2 C 73 % 1018,6 hPa 0,0 l/m 0 min 0 min 0 W/m 6,4 km/h (2 Bft) 95,74 %
03.05.2022 01:44 11,4 C 10,6 C 7,2 C 73 % 1018,5 hPa 0,0 l/m 0 min 0 min 0 W/m 12,9 km/h (3 Bft) 97,87 %
03.05.2022 01:46 11,4 C 10,6 C 7,2 C 73 % 1018,5 hPa 0,0 l/m 0 min 0 min 0 W/m 3,2 km/h (1 Bft) 97,87 %
03.05.2022 01:48 11,4 C 10,6 C 7,2 C 73 % 1018,5 hPa 0,0 l/m 0 min 0 min 0 W/m 12,9 km/h (3 Bft) 97,83 %
03.05.2022 01:50 11,4 C 10,6 C 7,2 C 73 % 1018,5 hPa 0,0 l/m 0 min 0 min 0 W/m 9,7 km/h (2 Bft) 97,87 %
03.05.2022 01:52 11,3 C 10,6 C 7,2 C 73 % 1018,5 hPa 0,0 l/m 0 min 0 min 0 W/m 6,4 km/h (2 Bft) 93,62 %
03.05.2022 01:54 11,3 C 10,6 C 7,2 C 74 % 1018,5 hPa 0,0 l/m 0 min 0 min 0 W/m 12,9 km/h (3 Bft) 97,87 %
03.05.2022 01:56 11,3 C 10,6 C 7,2 C 74 % 1018,5 hPa 0,0 l/m 0 min 0 min 0 W/m 6,4 km/h (2 Bft) 97,87 %
03.05.2022 01:58 11,3 C 10,6 C 7,2 C 74 % 1018,5 hPa 0,0 l/m 0 min 0 min 0 W/m 6,4 km/h (2 Bft) 97,87 %
03.05.2022 02:00 11,3 C 10,6 C 6,7 C 74 % 1018,5 hPa 0,0 l/m 0 min 0 min 0 W/m 3,2 km/h (1 Bft) 97,83 %
03.05.2022 02:02 11,2 C 10,0 C 6,7 C 74 % 1018,5 hPa 0,0 l/m 0 min 0 min 0 W/m 6,4 km/h (2 Bft) 95,74 %
03.05.2022 02:04 11,2 C 10,0 C 6,7 C 74 % 1018,4 hPa 0,0 l/m 0 min 0 min 0 W/m 9,7 km/h (2 Bft) 97,87 %
03.05.2022 02:06 11,2 C 10,0 C 6,7 C 74 % 1018,4 hPa 0,0 l/m 0 min 0 min 0 W/m 3,2 km/h (1 Bft) 95,74 %
03.05.2022 02:08 11,2 C 10,0 C 6,7 C 74 % 1018,4 hPa 0,0 l/m 0 min 0 min 0 W/m 9,7 km/h (2 Bft) 97,87 %
03.05.2022 02:10 11,1 C 10,0 C 6,7 C 74 % 1018,4 hPa 0,0 l/m 0 min 0 min 0 W/m 6,4 km/h (2 Bft) 97,87 %
03.05.2022 02:12 11,1 C 10,0 C 6,7 C 75 % 1018,4 hPa 0,0 l/m 0 min 0 min 0 W/m 6,4 km/h (2 Bft) 95,65 %
03.05.2022 02:14 11,0 C 10,0 C 6,7 C 75 % 1018,4 hPa 0,0 l/m 0 min 0 min 0 W/m 9,7 km/h (2 Bft) 97,87 %
03.05.2022 02:16 11,0 C 10,0 C 6,7 C 75 % 1018,4 hPa 0,0 l/m 0 min 0 min 0 W/m 3,2 km/h (1 Bft) 97,87 %
03.05.2022 02:18 11,0 C 10,0 C 6,7 C 75 % 1018,3 hPa 0,0 l/m 0 min 0 min 0 W/m 6,4 km/h (2 Bft) 97,87 %
03.05.2022 02:20 10,9 C 10,0 C 6,7 C 75 % 1018,3 hPa 0,0 l/m 0 min 0 min 0 W/m 9,7 km/h (2 Bft) 97,87 %
03.05.2022 02:22 10,9 C 10,0 C 6,7 C 75 % 1018,3 hPa 0,0 l/m 0 min 0 min 0 W/m 6,4 km/h (2 Bft) 97,87 %
03.05.2022 02:24 10,9 C 10,0 C 6,7 C 75 % 1018,3 hPa 0,0 l/m 0 min 0 min 0 W/m 9,7 km/h (2 Bft) 97,83 %
03.05.2022 02:26 10,9 C 10,0 C 6,7 C 75 % 1018,3 hPa 0,0 l/m 0 min 0 min 0 W/m 6,4 km/h (2 Bft) 95,74 %
03.05.2022 02:28 10,9 C 10,0 C 6,7 C 75 % 1018,3 hPa 0,0 l/m 0 min 0 min 0 W/m 6,4 km/h (2 Bft) 97,87 %
03.05.2022 02:30 10,8 C 10,0 C 6,7 C 75 % 1018,2 hPa 0,0 l/m 0 min 0 min 0 W/m 3,2 km/h (1 Bft) 97,87 %
03.05.2022 02:32 10,8 C 10,0 C 6,7 C 76 % 1018,2 hPa 0,0 l/m 0 min 0 min 0 W/m 3,2 km/h (1 Bft) 95,74 %
03.05.2022 02:34 10,8 C 9,4 C 6,7 C 76 % 1018,2 hPa 0,0 l/m 0 min 0 min 0 W/m 3,2 km/h (1 Bft) 97,87 %
03.05.2022 02:36 10,7 C 9,4 C 6,7 C 76 % 1018,2 hPa 0,0 l/m 0 min 0 min 0 W/m 6,4 km/h (2 Bft) 97,83 %
03.05.2022 02:38 10,7 C 9,4 C 6,1 C 76 % 1018,2 hPa 0,0 l/m 0 min 0 min 0 W/m 6,4 km/h (2 Bft) 95,74 %
03.05.2022 02:40 10,7 C 9,4 C 6,1 C 76 % 1018,2 hPa 0,0 l/m 0 min 0 min 0 W/m 6,4 km/h (2 Bft) 97,87 %
03.05.2022 02:42 10,6 C 9,4 C 6,1 C 76 % 1018,3 hPa 0,0 l/m 0 min 0 min 0 W/m 3,2 km/h (1 Bft) 100,00 %
03.05.2022 02:44 10,6 C 9,4 C 6,1 C 76 % 1018,2 hPa 0,0 l/m 0 min 0 min 0 W/m 3,2 km/h (1 Bft) 100,00 %
03.05.2022 02:46 10,6 C 9,4 C 6,1 C 76 % 1018,2 hPa 0,0 l/m 0 min 0 min 0 W/m 3,2 km/h (1 Bft) 100,00 %
03.05.2022 02:48 10,6 C 9,4 C 6,1 C 76 % 1018,2 hPa 0,0 l/m 0 min 0 min 0 W/m 3,2 km/h (1 Bft) 100,00 %
03.05.2022 02:50 10,5 C 9,4 C 6,1 C 77 % 1018,2 hPa 0,0 l/m 0 min 0 min 0 W/m 6,4 km/h (2 Bft) 100,00 %
03.05.2022 02:52 10,5 C 9,4 C 6,1 C 77 % 1018,2 hPa 0,0 l/m 0 min 0 min 0 W/m 0,0 km/h (0 Bft) 100,00 %
03.05.2022 02:54 10,4 C 9,4 C 6,1 C 77 % 1018,2 hPa 0,0 l/m 0 min 0 min 0 W/m 3,2 km/h (1 Bft) 100,00 %
03.05.2022 02:56 10,4 C 9,4 C 6,1 C 77 % 1018,3 hPa 0,0 l/m 0 min 0 min 0 W/m 3,2 km/h (1 Bft) 100,00 %
03.05.2022 02:58 10,4 C 9,4 C 6,1 C 77 % 1018,3 hPa 0,0 l/m 0 min 0 min 0 W/m 6,4 km/h (2 Bft) 97,87 %
03.05.2022 03:00 10,4 C 9,4 C 6,1 C 77 % 1018,3 hPa 0,0 l/m 0 min 0 min 0 W/m 3,2 km/h (1 Bft) 100,00 %
03.05.2022 03:02 10,4 C 9,4 C 6,1 C 77 % 1018,3 hPa 0,0 l/m 0 min 0 min 0 W/m 3,2 km/h (1 Bft) 100,00 %
03.05.2022 03:04 10,3 C 9,4 C 6,1 C 77 % 1018,3 hPa 0,0 l/m 0 min 0 min 0 W/m 3,2 km/h (1 Bft) 100,00 %
03.05.2022 03:06 10,3 C 9,4 C 6,1 C 77 % 1018,3 hPa 0,0 l/m 0 min 0 min 0 W/m 6,4 km/h (2 Bft) 100,00 %
03.05.2022 03:08 10,3 C 8,9 C 6,1 C 77 % 1018,3 hPa 0,0 l/m 0 min 0 min 0 W/m 6,4 km/h (2 Bft) 97,87 %
03.05.2022 03:10 10,3 C 8,9 C 6,1 C 77 % 1018,3 hPa 0,0 l/m 0 min 0 min 0 W/m 3,2 km/h (1 Bft) 100,00 %
03.05.2022 03:12 10,2 C 8,9 C 5,6 C 78 % 1018,4 hPa 0,0 l/m 0 min 0 min 0 W/m 3,2 km/h (1 Bft) 97,87 %
03.05.2022 03:14 10,2 C 8,9 C 5,6 C 78 % 1018,3 hPa 0,0 l/m 0 min 0 min 0 W/m 3,2 km/h (1 Bft) 100,00 %
03.05.2022 03:16 10,2 C 8,9 C 5,6 C 78 % 1018,3 hPa 0,0 l/m 0 min 0 min 0 W/m 9,7 km/h (2 Bft) 100,00 %
03.05.2022 03:18 10,1 C 8,9 C 5,6 C 78 % 1018,3 hPa 0,0 l/m 0 min 0 min 0 W/m 3,2 km/h (1 Bft) 100,00 %
03.05.2022 03:20 10,1 C 8,9 C 5,6 C 78 % 1018,3 hPa 0,0 l/m 0 min 0 min 0 W/m 6,4 km/h (2 Bft) 100,00 %
03.05.2022 03:22 10,1 C 8,9 C 5,6 C 78 % 1018,3 hPa 0,0 l/m 0 min 0 min 0 W/m 6,4 km/h (2 Bft) 97,87 %
03.05.2022 03:24 10,0 C 8,9 C 5,6 C 78 % 1018,3 hPa 0,0 l/m 0 min 0 min 0 W/m 3,2 km/h (1 Bft) 100,00 %
03.05.2022 03:26 10,0 C 8,9 C 5,6 C 78 % 1018,3 hPa 0,0 l/m 0 min 0 min 0 W/m 6,4 km/h (2 Bft) 97,83 %
03.05.2022 03:28 10,0 C 8,9 C 5,6 C 78 % 1018,3 hPa 0,0 l/m 0 min 0 min 0 W/m 6,4 km/h (2 Bft) 97,87 %
03.05.2022 03:30 9,9 C 8,9 C 5,6 C 78 % 1018,3 hPa 0,0 l/m 0 min 0 min 0 W/m 9,7 km/h (2 Bft) 97,87 %
03.05.2022 03:32 9,9 C 8,9 C 5,6 C 78 % 1018,3 hPa 0,0 l/m 0 min 0 min 0 W/m 3,2 km/h (1 Bft) 97,87 %
03.05.2022 03:34 9,9 C 8,9 C 5,6 C 78 % 1018,3 hPa 0,0 l/m 0 min 0 min 0 W/m 6,4 km/h (2 Bft) 95,74 %
03.05.2022 03:36 9,9 C 8,9 C 5,6 C 78 % 1018,3 hPa 0,0 l/m 0 min 0 min 0 W/m 3,2 km/h (1 Bft) 97,87 %
03.05.2022 03:38 9,8 C 8,9 C 5,6 C 78 % 1018,3 hPa 0,0 l/m 0 min 0 min 0 W/m 6,4 km/h (2 Bft) 97,83 %
03.05.2022 03:40 9,8 C 8,9 C 5,6 C 78 % 1018,2 hPa 0,0 l/m 0 min 0 min 0 W/m 9,7 km/h (2 Bft) 95,74 %
03.05.2022 03:42 9,8 C 8,9 C 5,6 C 78 % 1018,3 hPa 0,0 l/m 0 min 0 min 0 W/m 6,4 km/h (2 Bft) 97,87 %
03.05.2022 03:44 9,7 C 8,9 C 5,6 C 78 % 1018,2 hPa 0,0 l/m 0 min 0 min 0 W/m 3,2 km/h (1 Bft) 95,74 %
03.05.2022 03:46 9,7 C 8,9 C 5,6 C 78 % 1018,2 hPa 0,0 l/m 0 min 0 min 0 W/m 3,2 km/h (1 Bft) 93,62 %
03.05.2022 03:48 9,7 C 8,9 C 5,6 C 78 % 1018,2 hPa 0,0 l/m 0 min 0 min 0 W/m 3,2 km/h (1 Bft) 95,74 %
03.05.2022 03:50 9,7 C 8,9 C 5,6 C 78 % 1018,2 hPa 0,0 l/m 0 min 0 min 0 W/m 6,4 km/h (2 Bft) 97,83 %
03.05.2022 03:52 9,6 C 8,3 C 5,6 C 78 % 1018,3 hPa 0,0 l/m 0 min 0 min 0 W/m 9,7 km/h (2 Bft) 91,49 %
03.05.2022 03:54 9,6 C 8,3 C 5,6 C 78 % 1018,3 hPa 0,0 l/m 0 min 0 min 0 W/m 6,4 km/h (2 Bft) 91,49 %
03.05.2022 03:56 9,6 C 8,3 C 5,6 C 78 % 1018,3 hPa 0,0 l/m 0 min 0 min 0 W/m 6,4 km/h (2 Bft) 91,49 %
03.05.2022 03:58 9,6 C 8,3 C 5,6 C 78 % 1018,3 hPa 0,0 l/m 0 min 0 min 0 W/m 3,2 km/h (1 Bft) 93,62 %
03.05.2022 04:00 9,5 C 8,3 C 5,6 C 78 % 1018,3 hPa 0,0 l/m 0 min 0 min 0 W/m 9,7 km/h (2 Bft) 93,62 %
03.05.2022 04:05 9,4 C 8,3 C 5,6 C 79 % 1018,3 hPa 0,0 l/m 0 min 0 min 0 W/m 6,4 km/h (2 Bft) 94,12 %
03.05.2022 04:06 9,4 C 8,3 C 5,6 C 78 % 1018,3 hPa 0,0 l/m 0 min 0 min 0 W/m 6,4 km/h (2 Bft) 96,15 %
03.05.2022 04:08 9,4 C 8,3 C 5,6 C 79 % 1018,3 hPa 0,0 l/m 0 min 0 min 0 W/m 3,2 km/h (1 Bft) 95,74 %
03.05.2022 04:10 9,4 C 8,3 C 5,6 C 79 % 1018,3 hPa 0,0 l/m 0 min 0 min 0 W/m 6,4 km/h (2 Bft) 100,00 %
03.05.2022 04:12 9,3 C 8,3 C 5,0 C 79 % 1018,3 hPa 0,0 l/m 0 min 0 min 0 W/m 9,7 km/h (2 Bft) 94,83 %
03.05.2022 04:14 9,3 C 8,3 C 5,0 C 79 % 1018,3 hPa 0,0 l/m 0 min 0 min 0 W/m 9,7 km/h (2 Bft) 89,36 %
03.05.2022 04:16 9,3 C 8,3 C 5,0 C 79 % 1018,3 hPa 0,0 l/m 0 min 0 min 0 W/m 3,2 km/h (1 Bft) 94,29 %
03.05.2022 04:18 9,3 C 8,3 C 5,0 C 79 % 1018,2 hPa 0,0 l/m 0 min 0 min 0 W/m 9,7 km/h (2 Bft) 93,22 %
03.05.2022 04:20 9,2 C 8,3 C 5,0 C 79 % 1018,2 hPa 0,0 l/m 0 min 0 min 0 W/m 6,4 km/h (2 Bft) 97,87 %
03.05.2022 04:22 9,2 C 8,3 C 5,0 C 79 % 1018,2 hPa 0,0 l/m 0 min 0 min 0 W/m 6,4 km/h (2 Bft) 97,14 %
03.05.2022 04:24 9,2 C 8,3 C 5,0 C 79 % 1018,2 hPa 0,0 l/m 0 min 0 min 0 W/m 6,4 km/h (2 Bft) 95,74 %
03.05.2022 04:26 9,2 C 8,3 C 5,0 C 79 % 1018,2 hPa 0,0 l/m 0 min 0 min 0 W/m 6,4 km/h (2 Bft) 97,87 %
03.05.2022 04:28 9,1 C 8,3 C 5,0 C 79 % 1018,2 hPa 0,0 l/m 0 min 0 min 0 W/m 6,4 km/h (2 Bft) 98,28 %
03.05.2022 04:30 9,1 C 8,3 C 5,0 C 79 % 1018,2 hPa 0,0 l/m 0 min 0 min 0 W/m 6,4 km/h (2 Bft) 97,87 %
03.05.2022 04:32 9,1 C 8,3 C 5,0 C 79 % 1018,1 hPa 0,0 l/m 0 min 0 min 0 W/m 3,2 km/h (1 Bft) 100,00 %
03.05.2022 04:34 9,1 C 8,3 C 5,0 C 79 % 1018,1 hPa 0,0 l/m 0 min 0 min 0 W/m 3,2 km/h (1 Bft) 100,00 %
03.05.2022 04:36 9,1 C 8,3 C 5,0 C 79 % 1018,2 hPa 0,0 l/m 0 min 0 min 0 W/m 3,2 km/h (1 Bft) 100,00 %
03.05.2022 04:38 9,1 C 7,8 C 5,0 C 79 % 1018,2 hPa 0,0 l/m 0 min 0 min 0 W/m 3,2 km/h (1 Bft) 97,87 %
03.05.2022 04:40 9,0 C 7,8 C 5,0 C 79 % 1018,0 hPa 0,0 l/m 0 min 0 min 0 W/m 6,4 km/h (2 Bft) 100,00 %
03.05.2022 04:42 9,0 C 7,8 C 5,0 C 79 % 1018,1 hPa 0,0 l/m 0 min 0 min 0 W/m 6,4 km/h (2 Bft) 100,00 %
03.05.2022 04:44 8,9 C 7,8 C 5,0 C 79 % 1018,1 hPa 0,0 l/m 0 min 0 min 0 W/m 6,4 km/h (2 Bft) 53,49 %
03.05.2022 04:46 8,9 C 7,8 C 5,0 C 79 % 1018,1 hPa 0,0 l/m 0 min 0 min 0 W/m 9,7 km/h (2 Bft) 100,00 %
03.05.2022 04:48 8,9 C 7,8 C 5,0 C 79 % 1018,1 hPa 0,0 l/m 0 min 0 min 0 W/m 6,4 km/h (2 Bft) 97,83 %
03.05.2022 04:50 8,8 C 7,8 C 5,0 C 79 % 1018,1 hPa 0,0 l/m 0 min 0 min 0 W/m 9,7 km/h (2 Bft) 97,22 %
03.05.2022 04:52 8,8 C 7,8 C 5,0 C 79 % 1018,1 hPa 0,0 l/m 0 min 0 min 0 W/m 6,4 km/h (2 Bft) 100,00 %
03.05.2022 04:54 8,8 C 7,8 C 4,4 C 79 % 1018,1 hPa 0,0 l/m 0 min 0 min 0 W/m 9,7 km/h (2 Bft) 100,00 %
03.05.2022 04:56 8,8 C 7,8 C 4,4 C 79 % 1018,1 hPa 0,0 l/m 0 min 0 min 0 W/m 9,7 km/h (2 Bft) 98,31 %
03.05.2022 04:58 8,8 C 7,8 C 4,4 C 80 % 1018,1 hPa 0,0 l/m 0 min 0 min 0 W/m 3,2 km/h (1 Bft) 97,14 %
03.05.2022 05:00 8,8 C 7,8 C 4,4 C 80 % 1018,2 hPa 0,0 l/m 0 min 0 min 0 W/m 3,2 km/h (1 Bft) 100,00 %
03.05.2022 05:02 8,7 C 7,8 C 5,0 C 80 % 1018,2 hPa 0,0 l/m 0 min 0 min 0 W/m 3,2 km/h (1 Bft) 100,00 %
03.05.2022 05:04 8,7 C 7,8 C 5,0 C 80 % 1018,1 hPa 0,0 l/m 0 min 0 min 0 W/m 3,2 km/h (1 Bft) 95,74 %
03.05.2022 05:06 8,7 C 7,8 C 4,4 C 80 % 1018,2 hPa 0,0 l/m 0 min 0 min 0 W/m 9,7 km/h (2 Bft) 100,00 %
03.05.2022 05:08 8,7 C 7,8 C 4,4 C 80 % 1018,2 hPa 0,0 l/m 0 min 0 min 0 W/m 6,4 km/h (2 Bft) 100,00 %
03.05.2022 05:10 8,7 C 7,8 C 4,4 C 80 % 1018,1 hPa 0,0 l/m 0 min 0 min 0 W/m 3,2 km/h (1 Bft) 100,00 %
03.05.2022 05:12 8,7 C 7,8 C 4,4 C 80 % 1018,1 hPa 0,0 l/m 0 min 0 min 0 W/m 3,2 km/h (1 Bft) 100,00 %
03.05.2022 05:14 8,7 C 7,8 C 4,4 C 80 % 1018,0 hPa 0,0 l/m 0 min 0 min 0 W/m 3,2 km/h (1 Bft) 100,00 %
03.05.2022 05:16 8,6 C 7,8 C 4,4 C 80 % 1018,0 hPa 0,0 l/m 0 min 0 min 0 W/m 6,4 km/h (2 Bft) 100,00 %
03.05.2022 05:18 8,6 C 7,8 C 4,4 C 80 % 1018,1 hPa 0,0 l/m 0 min 0 min 0 W/m 6,4 km/h (2 Bft) 98,31 %
03.05.2022 05:20 8,6 C 7,8 C 4,4 C 80 % 1018,0 hPa 0,0 l/m 0 min 0 min 0 W/m 6,4 km/h (2 Bft) 100,00 %
03.05.2022 05:22 8,6 C 7,2 C 4,4 C 80 % 1018,0 hPa 0,0 l/m 0 min 0 min 0 W/m 6,4 km/h (2 Bft) 100,00 %
03.05.2022 05:24 8,4 C 7,2 C 4,4 C 80 % 1018,0 hPa 0,0 l/m 0 min 0 min 0 W/m 3,2 km/h (1 Bft) 98,28 %
03.05.2022 05:26 8,4 C 7,2 C 3,9 C 80 % 1018,1 hPa 0,0 l/m 0 min 0 min 0 W/m 3,2 km/h (1 Bft) 100,00 %
03.05.2022 05:28 8,4 C 7,2 C 3,9 C 80 % 1018,1 hPa 0,0 l/m 0 min 0 min 0 W/m 6,4 km/h (2 Bft) 97,83 %
03.05.2022 05:30 8,3 C 7,2 C 3,9 C 80 % 1018,1 hPa 0,0 l/m 0 min 0 min 0 W/m 6,4 km/h (2 Bft) 97,87 %
03.05.2022 05:32 8,3 C 7,2 C 3,9 C 80 % 1018,1 hPa 0,0 l/m 0 min 0 min 0 W/m 6,4 km/h (2 Bft) 97,87 %
03.05.2022 05:34 8,2 C 7,2 C 3,9 C 80 % 1018,1 hPa 0,0 l/m 0 min 0 min 0 W/m 6,4 km/h (2 Bft) 95,74 %
03.05.2022 05:36 8,2 C 7,2 C 3,9 C 81 % 1018,0 hPa 0,0 l/m 0 min 0 min 0 W/m 6,4 km/h (2 Bft) 96,55 %
03.05.2022 05:38 8,2 C 7,2 C 3,9 C 81 % 1018,0 hPa 0,0 l/m 0 min 0 min 0 W/m 12,9 km/h (3 Bft) 95,74 %
03.05.2022 05:40 8,2 C 7,2 C 4,4 C 81 % 1018,0 hPa 0,0 l/m 0 min 0 min 0 W/m 6,4 km/h (2 Bft) 97,14 %
03.05.2022 05:42 8,1 C 7,2 C 3,9 C 81 % 1018,1 hPa 0,0 l/m 0 min 0 min 0 W/m 3,2 km/h (1 Bft) 95,74 %
03.05.2022 05:44 8,1 C 7,2 C 3,9 C 81 % 1018,0 hPa 0,0 l/m 0 min 0 min 0 W/m 12,9 km/h (3 Bft) 96,61 %
03.05.2022 05:46 8,1 C 7,2 C 3,9 C 81 % 1018,0 hPa 0,0 l/m 0 min 0 min 0 W/m 3,2 km/h (1 Bft) 94,29 %
03.05.2022 05:48 8,1 C 7,2 C 3,9 C 81 % 1018,0 hPa 0,0 l/m 0 min 0 min 0 W/m 9,7 km/h (2 Bft) 97,87 %
03.05.2022 05:50 8,1 C 7,2 C 3,9 C 81 % 1018,0 hPa 0,0 l/m 0 min 0 min 0 W/m 3,2 km/h (1 Bft) 97,87 %
03.05.2022 05:52 8,0 C 7,2 C 3,9 C 80 % 1018,0 hPa 0,0 l/m 0 min 0 min 0 W/m 6,4 km/h (2 Bft) 95,83 %
03.05.2022 05:54 8,0 C 7,2 C 3,9 C 80 % 1018,1 hPa 0,0 l/m 0 min 0 min 0 W/m 3,2 km/h (1 Bft) 97,87 %
03.05.2022 05:56 7,9 C 7,2 C 3,9 C 81 % 1018,1 hPa 0,0 l/m 0 min 0 min 0 W/m 6,4 km/h (2 Bft) 95,74 %
03.05.2022 05:58 7,9 C 7,2 C 3,9 C 81 % 1018,1 hPa 0,0 l/m 0 min 0 min 0 W/m 9,7 km/h (2 Bft) 97,87 %
03.05.2022 06:00 7,9 C 7,2 C 3,9 C 81 % 1018,1 hPa 0,0 l/m 0 min 0 min 0 W/m 6,4 km/h (2 Bft) 95,74 %
03.05.2022 06:02 7,9 C 7,2 C 3,9 C 81 % 1018,1 hPa 0,0 l/m 0 min 0 min 0 W/m 6,4 km/h (2 Bft) 97,83 %
03.05.2022 06:04 7,9 C 7,2 C 3,9 C 80 % 1018,2 hPa 0,0 l/m 0 min 0 min 0 W/m 6,4 km/h (2 Bft) 97,87 %
03.05.2022 06:07 7,9 C 7,2 C 3,9 C 80 % 1018,2 hPa 0,0 l/m 0 min 0 min 0 W/m 6,4 km/h (2 Bft) 96,34 %
03.05.2022 06:08 7,9 C 7,2 C 3,9 C 80 % 1018,2 hPa 0,0 l/m 0 min 0 min 0 W/m 12,9 km/h (3 Bft) 100,00 %
03.05.2022 06:10 7,9 C 7,2 C 3,9 C 80 % 1018,2 hPa 0,0 l/m 0 min 0 min 4 W/m 6,4 km/h (2 Bft) 97,87 %
03.05.2022 06:12 7,8 C 7,2 C 3,9 C 80 % 1018,2 hPa 0,0 l/m 0 min 0 min 5 W/m 6,4 km/h (2 Bft) 97,87 %
03.05.2022 06:14 7,8 C 7,2 C 3,9 C 80 % 1018,2 hPa 0,0 l/m 0 min 0 min 5 W/m 6,4 km/h (2 Bft) 97,83 %
03.05.2022 06:16 7,8 C 7,2 C 3,9 C 80 % 1018,3 hPa 0,0 l/m 0 min 0 min 7 W/m 6,4 km/h (2 Bft) 97,87 %
03.05.2022 06:18 7,8 C 7,2 C 3,9 C 80 % 1018,2 hPa 0,0 l/m 0 min 0 min 7 W/m 6,4 km/h (2 Bft) 97,87 %
03.05.2022 06:20 7,8 C 7,2 C 3,9 C 80 % 1018,2 hPa 0,0 l/m 0 min 0 min 9 W/m 3,2 km/h (1 Bft) 97,87 %
03.05.2022 06:22 7,8 C 7,2 C 3,9 C 80 % 1018,2 hPa 0,0 l/m 0 min 0 min 10 W/m 6,4 km/h (2 Bft) 93,62 %
03.05.2022 06:24 7,8 C 7,2 C 3,9 C 80 % 1018,2 hPa 0,0 l/m 0 min 0 min 11 W/m 9,7 km/h (2 Bft) 97,87 %
03.05.2022 06:26 7,8 C 7,2 C 3,9 C 80 % 1018,2 hPa 0,0 l/m 0 min 0 min 11 W/m 6,4 km/h (2 Bft) 97,83 %
03.05.2022 06:28 7,8 C 7,2 C 3,9 C 80 % 1018,2 hPa 0,0 l/m 0 min 0 min 12 W/m 6,4 km/h (2 Bft) 95,74 %
03.05.2022 06:30 7,8 C 7,2 C 3,9 C 80 % 1018,2 hPa 0,0 l/m 0 min 0 min 13 W/m 3,2 km/h (1 Bft) 97,87 %
03.05.2022 06:32 7,8 C 7,2 C 3,9 C 80 % 1018,3 hPa 0,0 l/m 0 min 0 min 14 W/m 6,4 km/h (2 Bft) 97,87 %
03.05.2022 06:34 7,8 C 7,2 C 3,9 C 80 % 1018,3 hPa 0,0 l/m 0 min 0 min 15 W/m 3,2 km/h (1 Bft) 97,87 %
03.05.2022 06:36 7,7 C 7,2 C 3,9 C 80 % 1018,3 hPa 0,0 l/m 0 min 0 min 16 W/m 6,4 km/h (2 Bft) 100,00 %
03.05.2022 06:38 7,7 C 7,2 C 3,9 C 80 % 1018,3 hPa 0,0 l/m 0 min 0 min 17 W/m 0,0 km/h (0 Bft) 100,00 %
03.05.2022 06:40 7,7 C 7,2 C 3,9 C 81 % 1018,3 hPa 0,0 l/m 0 min 0 min 18 W/m 0,0 km/h (0 Bft) 97,87 %
03.05.2022 06:42 7,8 C 7,2 C 3,9 C 81 % 1018,3 hPa 0,0 l/m 0 min 0 min 19 W/m 12,9 km/h (3 Bft) 100,00 %
03.05.2022 06:44 7,7 C 7,2 C 3,9 C 80 % 1018,4 hPa 0,0 l/m 0 min 0 min 20 W/m 12,9 km/h (3 Bft) 97,87 %
03.05.2022 06:46 7,7 C 7,2 C 3,9 C 80 % 1018,4 hPa 0,0 l/m 0 min 0 min 22 W/m 6,4 km/h (2 Bft) 97,87 %
03.05.2022 06:48 7,7 C 7,2 C 3,9 C 80 % 1018,4 hPa 0,0 l/m 0 min 0 min 23 W/m 0,0 km/h (0 Bft) 97,87 %
03.05.2022 06:50 7,7 C 7,2 C 3,9 C 81 % 1018,3 hPa 0,0 l/m 0 min 0 min 25 W/m 6,4 km/h (2 Bft) 100,00 %
03.05.2022 06:52 7,7 C 7,2 C 3,9 C 81 % 1018,4 hPa 0,0 l/m 0 min 0 min 26 W/m 6,4 km/h (2 Bft) 100,00 %
03.05.2022 06:54 7,7 C 7,2 C 3,9 C 81 % 1018,4 hPa 0,0 l/m 0 min 0 min 27 W/m 3,2 km/h (1 Bft) 97,87 %
03.05.2022 06:56 7,7 C 7,2 C 3,9 C 81 % 1018,4 hPa 0,0 l/m 0 min 0 min 29 W/m 3,2 km/h (1 Bft) 100,00 %
03.05.2022 06:58 7,7 C 7,2 C 3,9 C 81 % 1018,4 hPa 0,0 l/m 0 min 0 min 30 W/m 3,2 km/h (1 Bft) 100,00 %
03.05.2022 07:00 7,7 C 7,2 C 3,9 C 81 % 1018,5 hPa 0,0 l/m 0 min 0 min 32 W/m 0,0 km/h (0 Bft) 100,00 %
03.05.2022 07:02 7,7 C 7,2 C 3,9 C 81 % 1018,4 hPa 0,0 l/m 0 min 0 min 33 W/m 0,0 km/h (0 Bft) 95,65 %
03.05.2022 07:04 7,7 C 7,2 C 3,9 C 81 % 1018,4 hPa 0,0 l/m 0 min 0 min 35 W/m 3,2 km/h (1 Bft) 100,00 %
03.05.2022 07:06 7,7 C 7,2 C 3,9 C 81 % 1018,5 hPa 0,0 l/m 0 min 0 min 36 W/m 6,4 km/h (2 Bft) 97,87 %
03.05.2022 07:08 7,7 C 7,2 C 3,9 C 81 % 1018,5 hPa 0,0 l/m 0 min 0 min 38 W/m 6,4 km/h (2 Bft) 97,87 %
03.05.2022 07:10 7,7 C 7,2 C 3,9 C 81 % 1018,5 hPa 0,0 l/m 0 min 0 min 40 W/m 3,2 km/h (1 Bft) 97,87 %
03.05.2022 07:12 7,7 C 7,2 C 3,9 C 81 % 1018,6 hPa 0,0 l/m 0 min 0 min 40 W/m 3,2 km/h (1 Bft) 97,87 %
03.05.2022 07:14 7,7 C 7,2 C 3,9 C 81 % 1018,5 hPa 0,0 l/m 0 min 0 min 42 W/m 3,2 km/h (1 Bft) 97,83 %
03.05.2022 07:16 7,7 C 7,2 C 3,9 C 81 % 1018,5 hPa 0,0 l/m 0 min 0 min 44 W/m 3,2 km/h (1 Bft) 95,74 %
03.05.2022 07:18 7,7 C 7,2 C 3,9 C 81 % 1018,6 hPa 0,0 l/m 0 min 0 min 45 W/m 6,4 km/h (2 Bft) 95,74 %
03.05.2022 07:20 7,7 C 7,8 C 4,4 C 81 % 1018,6 hPa 0,0 l/m 0 min 0 min 46 W/m 3,2 km/h (1 Bft) 95,74 %
03.05.2022 07:22 7,8 C 7,8 C 4,4 C 81 % 1018,6 hPa 0,0 l/m 0 min 0 min 48 W/m 9,7 km/h (2 Bft) 95,74 %
03.05.2022 07:24 7,8 C 7,8 C 4,4 C 81 % 1018,5 hPa 0,0 l/m 0 min 0 min 49 W/m 6,4 km/h (2 Bft) 95,74 %
03.05.2022 07:26 7,8 C 7,8 C 4,4 C 81 % 1018,5 hPa 0,0 l/m 0 min 0 min 51 W/m 9,7 km/h (2 Bft) 93,48 %
03.05.2022 07:28 7,8 C 7,8 C 4,4 C 81 % 1018,6 hPa 0,0 l/m 0 min 0 min 52 W/m 6,4 km/h (2 Bft) 93,62 %
03.05.2022 07:30 7,9 C 7,8 C 4,4 C 80 % 1018,5 hPa 0,0 l/m 0 min 0 min 54 W/m 6,4 km/h (2 Bft) 95,74 %
03.05.2022 07:32 7,9 C 7,8 C 4,4 C 81 % 1018,6 hPa 0,0 l/m 0 min 0 min 55 W/m 6,4 km/h (2 Bft) 95,74 %
03.05.2022 07:34 7,9 C 7,8 C 4,4 C 80 % 1018,6 hPa 0,0 l/m 0 min 0 min 57 W/m 6,4 km/h (2 Bft) 95,74 %
03.05.2022 07:36 7,9 C 7,8 C 4,4 C 80 % 1018,6 hPa 0,0 l/m 0 min 0 min 59 W/m 6,4 km/h (2 Bft) 97,87 %
03.05.2022 07:38 8,0 C 7,8 C 4,4 C 80 % 1018,6 hPa 0,0 l/m 0 min 0 min 60 W/m 3,2 km/h (1 Bft) 100,00 %
03.05.2022 07:40 8,1 C 8,3 C 4,4 C 80 % 1018,6 hPa 0,0 l/m 0 min 0 min 62 W/m 6,4 km/h (2 Bft) 97,87 %
03.05.2022 07:42 8,1 C 8,3 C 4,4 C 80 % 1018,7 hPa 0,0 l/m 0 min 0 min 63 W/m 6,4 km/h (2 Bft) 97,87 %
03.05.2022 07:44 8,1 C 8,3 C 5,0 C 80 % 1018,7 hPa 0,0 l/m 0 min 0 min 64 W/m 6,4 km/h (2 Bft) 95,74 %
03.05.2022 07:46 8,2 C 8,3 C 5,0 C 80 % 1018,7 hPa 0,0 l/m 0 min 0 min 66 W/m 6,4 km/h (2 Bft) 97,87 %
03.05.2022 07:48 8,2 C 8,3 C 5,0 C 79 % 1018,7 hPa 0,0 l/m 0 min 0 min 67 W/m 12,9 km/h (3 Bft) 95,74 %
03.05.2022 07:50 8,3 C 8,3 C 5,0 C 79 % 1018,7 hPa 0,0 l/m 0 min 0 min 68 W/m 6,4 km/h (2 Bft) 97,83 %
03.05.2022 07:52 8,3 C 8,3 C 5,0 C 79 % 1018,8 hPa 0,0 l/m 0 min 0 min 69 W/m 6,4 km/h (2 Bft) 97,87 %
03.05.2022 07:54 8,4 C 8,9 C 5,0 C 79 % 1018,8 hPa 0,0 l/m 0 min 0 min 70 W/m 6,4 km/h (2 Bft) 97,87 %
03.05.2022 07:56 8,5 C 8,9 C 5,0 C 79 % 1018,7 hPa 0,0 l/m 0 min 0 min 70 W/m 9,7 km/h (2 Bft) 97,87 %
03.05.2022 07:58 8,6 C 8,9 C 5,0 C 78 % 1018,7 hPa 0,0 l/m 0 min 0 min 70 W/m 6,4 km/h (2 Bft) 97,87 %
03.05.2022 08:00 8,6 C 8,9 C 5,0 C 78 % 1018,7 hPa 0,0 l/m 0 min 0 min 72 W/m 9,7 km/h (2 Bft) 97,87 %
03.05.2022 08:02 8,7 C 8,9 C 5,6 C 77 % 1018,8 hPa 0,0 l/m 0 min 0 min 72 W/m 6,4 km/h (2 Bft) 93,48 %
03.05.2022 08:04 8,8 C 8,9 C 5,6 C 77 % 1018,7 hPa 0,0 l/m 0 min 0 min 73 W/m 9,7 km/h (2 Bft) 97,87 %
03.05.2022 08:06 8,8 C 8,9 C 5,6 C 76 % 1018,8 hPa 0,0 l/m 0 min 0 min 75 W/m 6,4 km/h (2 Bft) 97,87 %
03.05.2022 08:08 8,9 C 8,9 C 5,6 C 77 % 1018,8 hPa 0,0 l/m 0 min 0 min 77 W/m 3,2 km/h (1 Bft) 97,87 %
03.05.2022 08:10 8,9 C 9,4 C 5,6 C 77 % 1018,8 hPa 0,0 l/m 0 min 0 min 80 W/m 9,7 km/h (2 Bft) 95,74 %
03.05.2022 08:12 9,0 C 9,4 C 5,6 C 77 % 1018,8 hPa 0,0 l/m 0 min 0 min 134 W/m 6,4 km/h (2 Bft) 100,00 %
03.05.2022 08:14 9,1 C 9,4 C 5,6 C 76 % 1018,8 hPa 0,0 l/m 2 min 0 min 211 W/m 9,7 km/h (2 Bft) 95,65 %
03.05.2022 08:16 9,2 C 9,4 C 5,6 C 76 % 1018,8 hPa 0,0 l/m 0 min 0 min 116 W/m 12,9 km/h (3 Bft) 100,00 %
03.05.2022 08:18 9,2 C 9,4 C 5,6 C 75 % 1018,9 hPa 0,0 l/m 0 min 0 min 84 W/m 12,9 km/h (3 Bft) 97,87 %
03.05.2022 08:20 9,3 C 9,4 C 5,6 C 74 % 1018,8 hPa 0,0 l/m 0 min 0 min 90 W/m 12,9 km/h (3 Bft) 97,87 %
03.05.2022 08:22 9,3 C 9,4 C 5,6 C 74 % 1018,9 hPa 0,0 l/m 2 min 0 min 197 W/m 9,7 km/h (2 Bft) 95,92 %
03.05.2022 08:24 9,4 C 9,4 C 5,6 C 73 % 1018,9 hPa 0,0 l/m 2 min 0 min 265 W/m 16,1 km/h (3 Bft) 97,87 %
03.05.2022 08:26 9,4 C 9,4 C 6,1 C 73 % 1018,9 hPa 0,0 l/m 2 min 0 min 276 W/m 6,4 km/h (2 Bft) 97,87 %
03.05.2022 08:28 9,5 C 10,0 C 6,1 C 73 % 1018,9 hPa 0,0 l/m 2 min 0 min 272 W/m 6,4 km/h (2 Bft) 97,87 %
03.05.2022 08:30 9,6 C 10,0 C 6,1 C 73 % 1018,9 hPa 0,0 l/m 2 min 0 min 272 W/m 9,7 km/h (2 Bft) 96,23 %
03.05.2022 08:32 9,7 C 10,0 C 6,1 C 72 % 1018,9 hPa 0,0 l/m 2 min 0 min 261 W/m 9,7 km/h (2 Bft) 97,87 %
03.05.2022 08:34 9,7 C 10,0 C 6,1 C 72 % 1019,0 hPa 0,0 l/m 2 min 0 min 262 W/m 6,4 km/h (2 Bft) 97,87 %
03.05.2022 08:36 9,8 C 10,0 C 6,1 C 72 % 1019,0 hPa 0,0 l/m 2 min 0 min 290 W/m 6,4 km/h (2 Bft) 97,83 %
03.05.2022 08:38 9,8 C 10,0 C 6,1 C 72 % 1019,0 hPa 0,0 l/m 2 min 0 min 312 W/m 12,9 km/h (3 Bft) 97,87 %
03.05.2022 08:40 9,9 C 10,0 C 6,1 C 71 % 1019,0 hPa 0,0 l/m 2 min 0 min 316 W/m 3,2 km/h (1 Bft) 97,87 %
03.05.2022 08:42 10,0 C 10,0 C 6,1 C 71 % 1019,1 hPa 0,0 l/m 2 min 0 min 312 W/m 12,9 km/h (3 Bft) 97,87 %
03.05.2022 08:44 10,1 C 10,6 C 6,7 C 71 % 1019,1 hPa 0,0 l/m 2 min 0 min 323 W/m 6,4 km/h (2 Bft) 97,87 %
03.05.2022 08:46 10,2 C 11,1 C 6,7 C 71 % 1019,1 hPa 0,0 l/m 2 min 0 min 298 W/m 9,7 km/h (2 Bft) 95,74 %
03.05.2022 08:48 10,3 C 12,8 C 6,7 C 71 % 1019,1 hPa 0,0 l/m 2 min 0 min 340 W/m 9,7 km/h (2 Bft) 97,83 %
03.05.2022 08:50 10,4 C 12,8 C 6,7 C 70 % 1019,1 hPa 0,0 l/m 2 min 0 min 332 W/m 12,9 km/h (3 Bft) 97,87 %
03.05.2022 08:52 10,5 C 13,9 C 6,7 C 69 % 1019,1 hPa 0,0 l/m 2 min 0 min 337 W/m 12,9 km/h (3 Bft) 97,87 %
03.05.2022 08:54 10,7 C 15,0 C 6,7 C 69 % 1019,1 hPa 0,0 l/m 2 min 0 min 334 W/m 9,7 km/h (2 Bft) 97,87 %
03.05.2022 08:56 10,8 C 15,0 C 7,2 C 69 % 1019,1 hPa 0,0 l/m 2 min 0 min 283 W/m 16,1 km/h (3 Bft) 93,62 %
03.05.2022 08:58 11,0 C 15,6 C 7,2 C 68 % 1019,1 hPa 0,0 l/m 2 min 0 min 353 W/m 9,7 km/h (2 Bft) 97,87 %
03.05.2022 09:00 11,2 C 16,1 C 7,8 C 68 % 1019,1 hPa 0,0 l/m 2 min 0 min 373 W/m 9,7 km/h (2 Bft) 93,62 %
03.05.2022 09:02 11,4 C 16,7 C 8,3 C 67 % 1019,2 hPa 0,0 l/m 2 min 0 min 378 W/m 9,7 km/h (2 Bft) 93,48 %
03.05.2022 09:04 11,6 C 16,7 C 8,3 C 67 % 1019,2 hPa 0,0 l/m 2 min 0 min 382 W/m 16,1 km/h (3 Bft) 95,74 %
03.05.2022 09:06 11,7 C 16,7 C 8,9 C 66 % 1019,2 hPa 0,0 l/m 2 min 0 min 380 W/m 12,9 km/h (3 Bft) 95,74 %
03.05.2022 09:08 11,8 C 16,1 C 8,9 C 65 % 1019,2 hPa 0,0 l/m 2 min 0 min 371 W/m 9,7 km/h (2 Bft) 95,74 %
03.05.2022 09:10 11,9 C 16,7 C 8,9 C 65 % 1019,2 hPa 0,0 l/m 2 min 0 min 365 W/m 12,9 km/h (3 Bft) 95,74 %
03.05.2022 09:12 12,1 C 16,7 C 9,4 C 64 % 1019,2 hPa 0,0 l/m 2 min 0 min 382 W/m 12,9 km/h (3 Bft) 93,48 %
03.05.2022 09:14 12,3 C 17,2 C 9,4 C 63 % 1019,2 hPa 0,0 l/m 2 min 0 min 398 W/m 9,7 km/h (2 Bft) 95,74 %
03.05.2022 09:16 12,4 C 17,2 C 9,4 C 63 % 1019,2 hPa 0,0 l/m 2 min 0 min 408 W/m 9,7 km/h (2 Bft) 95,74 %
03.05.2022 09:18 12,4 C 17,2 C 10,0 C 63 % 1019,2 hPa 0,0 l/m 2 min 0 min 412 W/m 9,7 km/h (2 Bft) 95,74 %
03.05.2022 09:20 12,5 C 16,7 C 10,0 C 61 % 1019,2 hPa 0,0 l/m 2 min 0 min 389 W/m 16,1 km/h (3 Bft) 95,74 %
03.05.2022 09:22 12,6 C 16,7 C 10,0 C 62 % 1019,2 hPa 0,0 l/m 2 min 0 min 420 W/m 9,7 km/h (2 Bft) 95,65 %
03.05.2022 09:24 12,6 C 16,7 C 10,0 C 62 % 1019,3 hPa 0,0 l/m 2 min 0 min 424 W/m 9,7 km/h (2 Bft) 95,74 %
03.05.2022 09:26 12,7 C 16,7 C 10,6 C 61 % 1019,3 hPa 0,0 l/m 2 min 0 min 422 W/m 16,1 km/h (3 Bft) 93,62 %
03.05.2022 09:28 12,7 C 16,7 C 10,6 C 60 % 1019,3 hPa 0,0 l/m 2 min 0 min 432 W/m 16,1 km/h (3 Bft) 95,74 %
03.05.2022 09:30 12,7 C 16,1 C 10,6 C 61 % 1019,3 hPa 0,0 l/m 2 min 0 min 443 W/m 12,9 km/h (3 Bft) 95,74 %
03.05.2022 09:32 12,8 C 16,7 C 10,6 C 61 % 1019,3 hPa 0,0 l/m 2 min 0 min 456 W/m 9,7 km/h (2 Bft) 93,62 %
03.05.2022 09:34 12,9 C 16,7 C 10,6 C 60 % 1019,3 hPa 0,0 l/m 2 min 0 min 460 W/m 16,1 km/h (3 Bft) 95,74 %
03.05.2022 09:36 12,9 C 16,7 C 10,6 C 60 % 1019,3 hPa 0,0 l/m 2 min 0 min 478 W/m 9,7 km/h (2 Bft) 93,48 %
03.05.2022 09:38 13,1 C 17,8 C 11,1 C 59 % 1019,3 hPa 0,0 l/m 2 min 0 min 482 W/m 9,7 km/h (2 Bft) 97,87 %
03.05.2022 09:40 13,2 C 17,8 C 11,1 C 60 % 1019,2 hPa 0,0 l/m 2 min 0 min 484 W/m 6,4 km/h (2 Bft) 97,87 %
03.05.2022 09:42 13,3 C 18,3 C 11,1 C 59 % 1019,3 hPa 0,0 l/m 2 min 0 min 483 W/m 9,7 km/h (2 Bft) 97,87 %
03.05.2022 09:44 13,4 C 17,8 C 11,1 C 59 % 1019,3 hPa 0,0 l/m 2 min 0 min 487 W/m 9,7 km/h (2 Bft) 97,87 %
03.05.2022 09:46 13,5 C 17,8 C 10,6 C 57 % 1019,3 hPa 0,0 l/m 2 min 0 min 476 W/m 9,7 km/h (2 Bft) 97,83 %
03.05.2022 09:48 13,6 C 17,2 C 10,6 C 56 % 1019,3 hPa 0,0 l/m 2 min 0 min 474 W/m 12,9 km/h (3 Bft) 97,87 %
03.05.2022 09:50 13,6 C 17,8 C 10,0 C 57 % 1019,3 hPa 0,0 l/m 2 min 0 min 455 W/m 9,7 km/h (2 Bft) 97,87 %
03.05.2022 09:52 13,7 C 17,8 C 10,0 C 57 % 1019,2 hPa 0,0 l/m 2 min 0 min 423 W/m 9,7 km/h (2 Bft) 97,87 %
03.05.2022 09:54 13,8 C 17,8 C 10,0 C 56 % 1019,2 hPa 0,0 l/m 0 min 0 min 250 W/m 9,7 km/h (2 Bft) 97,87 %
03.05.2022 09:56 13,9 C 17,8 C 9,4 C 55 % 1019,3 hPa 0,0 l/m 0 min 0 min 237 W/m 19,3 km/h (3 Bft) 97,87 %
03.05.2022 09:58 13,9 C 17,8 C 9,4 C 55 % 1019,2 hPa 0,0 l/m 0 min 0 min 240 W/m 16,1 km/h (3 Bft) 95,65 %
03.05.2022 10:00 14,0 C 18,3 C 9,4 C 55 % 1019,2 hPa 0,0 l/m 2 min 0 min 356 W/m 12,9 km/h (3 Bft) 93,62 %
03.05.2022 10:02 14,1 C 18,9 C 9,4 C 55 % 1019,2 hPa 0,0 l/m 2 min 0 min 349 W/m 12,9 km/h (3 Bft) 95,74 %
03.05.2022 10:04 14,2 C 18,3 C 9,4 C 54 % 1019,2 hPa 0,0 l/m 0 min 0 min 184 W/m 12,9 km/h (3 Bft) 97,87 %
03.05.2022 10:06 14,2 C 18,9 C 9,4 C 55 % 1019,2 hPa 0,0 l/m 0 min 0 min 218 W/m 9,7 km/h (2 Bft) 97,87 %
03.05.2022 10:08 14,3 C 18,9 C 10,0 C 55 % 1019,2 hPa 0,0 l/m 2 min 0 min 323 W/m 9,7 km/h (2 Bft) 97,87 %
03.05.2022 10:10 14,3 C 18,9 C 10,0 C 55 % 1019,2 hPa 0,0 l/m 2 min 0 min 415 W/m 9,7 km/h (2 Bft) 97,83 %
03.05.2022 10:12 14,3 C 18,9 C 10,0 C 55 % 1019,3 hPa 0,0 l/m 2 min 0 min 490 W/m 12,9 km/h (3 Bft) 97,87 %
03.05.2022 10:14 14,4 C 18,9 C 10,0 C 54 % 1019,3 hPa 0,0 l/m 2 min 0 min 434 W/m 16,1 km/h (3 Bft) 97,87 %
03.05.2022 10:16 14,6 C 18,9 C 10,0 C 53 % 1019,2 hPa 0,0 l/m 2 min 0 min 452 W/m 12,9 km/h (3 Bft) 97,87 %
03.05.2022 10:18 14,6 C 19,4 C 10,6 C 54 % 1019,3 hPa 0,0 l/m 2 min 0 min 550 W/m 12,9 km/h (3 Bft) 95,74 %
03.05.2022 10:20 14,6 C 18,9 C 10,6 C 53 % 1019,3 hPa 0,0 l/m 2 min 0 min 595 W/m 12,9 km/h (3 Bft) 97,87 %
03.05.2022 10:22 14,6 C 18,9 C 10,6 C 53 % 1019,3 hPa 0,0 l/m 2 min 0 min 616 W/m 12,9 km/h (3 Bft) 97,83 %
03.05.2022 10:24 14,7 C 18,9 C 10,6 C 53 % 1019,4 hPa 0,0 l/m 2 min 0 min 627 W/m 12,9 km/h (3 Bft) 97,87 %
03.05.2022 10:26 14,7 C 19,4 C 11,1 C 53 % 1019,3 hPa 0,0 l/m 2 min 0 min 629 W/m 19,3 km/h (3 Bft) 97,87 %
03.05.2022 10:28 14,7 C 20,0 C 11,1 C 53 % 1019,4 hPa 0,0 l/m 2 min 0 min 575 W/m 9,7 km/h (2 Bft) 97,87 %
03.05.2022 10:30 14,8 C 19,4 C 11,1 C 53 % 1019,4 hPa 0,0 l/m 2 min 0 min 529 W/m 16,1 km/h (3 Bft) 97,87 %
03.05.2022 10:32 14,8 C 18,9 C 11,1 C 53 % 1019,4 hPa 0,0 l/m 2 min 0 min 568 W/m 19,3 km/h (3 Bft) 97,87 %
03.05.2022 10:34 14,8 C 19,4 C 11,1 C 52 % 1019,4 hPa 0,0 l/m 2 min 0 min 630 W/m 16,1 km/h (3 Bft) 97,83 %
03.05.2022 10:36 14,9 C 18,9 C 11,7 C 53 % 1019,4 hPa 0,0 l/m 2 min 0 min 650 W/m 19,3 km/h (3 Bft) 97,87 %
03.05.2022 10:38 14,9 C 18,3 C 12,2 C 52 % 1019,4 hPa 0,0 l/m 2 min 0 min 646 W/m 9,7 km/h (2 Bft) 97,87 %
03.05.2022 10:40 15,0 C 18,3 C 12,8 C 52 % 1019,4 hPa 0,0 l/m 2 min 0 min 556 W/m 19,3 km/h (3 Bft) 97,87 %
03.05.2022 10:42 15,1 C 17,2 C 13,3 C 51 % 1019,4 hPa 0,0 l/m 2 min 0 min 662 W/m 16,1 km/h (3 Bft) 97,87 %
03.05.2022 10:44 15,1 C 17,2 C 12,8 C 51 % 1019,4 hPa 0,0 l/m 2 min 0 min 668 W/m 12,9 km/h (3 Bft) 97,87 %
03.05.2022 10:46 15,2 C 17,8 C 12,8 C 51 % 1019,4 hPa 0,0 l/m 2 min 0 min 671 W/m 16,1 km/h (3 Bft) 97,83 %
03.05.2022 10:48 15,2 C 17,8 C 12,2 C 50 % 1019,4 hPa 0,0 l/m 2 min 0 min 680 W/m 9,7 km/h (2 Bft) 95,74 %
03.05.2022 10:50 15,3 C 17,2 C 12,2 C 51 % 1019,3 hPa 0,0 l/m 2 min 0 min 684 W/m 16,1 km/h (3 Bft) 97,87 %
03.05.2022 10:52 15,3 C 17,2 C 12,2 C 51 % 1019,4 hPa 0,0 l/m 2 min 0 min 686 W/m 16,1 km/h (3 Bft) 97,87 %
03.05.2022 10:54 15,4 C 17,2 C 12,2 C 51 % 1019,4 hPa 0,0 l/m 2 min 0 min 689 W/m 12,9 km/h (3 Bft) 97,87 %
03.05.2022 10:56 15,5 C 17,8 C 11,7 C 51 % 1019,4 hPa 0,0 l/m 2 min 0 min 693 W/m 12,9 km/h (3 Bft) 95,74 %
03.05.2022 10:58 15,6 C 17,2 C 11,7 C 51 % 1019,4 hPa 0,0 l/m 2 min 0 min 698 W/m 19,3 km/h (3 Bft) 97,83 %
03.05.2022 11:00 15,7 C 16,7 C 11,7 C 50 % 1019,4 hPa 0,0 l/m 2 min 0 min 701 W/m 9,7 km/h (2 Bft) 97,87 %
03.05.2022 11:02 15,7 C 16,7 C 11,7 C 51 % 1019,4 hPa 0,0 l/m 2 min 0 min 684 W/m 12,9 km/h (3 Bft) 97,87 %
03.05.2022 11:04 15,7 C 16,7 C 11,7 C 50 % 1019,4 hPa 0,0 l/m 2 min 0 min 683 W/m 19,3 km/h (3 Bft) 95,74 %
03.05.2022 11:06 15,8 C 17,2 C 11,7 C 50 % 1019,4 hPa 0,0 l/m 2 min 0 min 694 W/m 16,1 km/h (3 Bft) 97,87 %
03.05.2022 11:08 15,8 C 17,2 C 11,7 C 49 % 1019,4 hPa 0,0 l/m 2 min 0 min 712 W/m 16,1 km/h (3 Bft) 97,87 %
03.05.2022 11:10 15,8 C 17,2 C 11,7 C 51 % 1019,4 hPa 0,0 l/m 2 min 0 min 698 W/m 6,4 km/h (2 Bft) 97,83 %
03.05.2022 11:12 15,9 C 17,2 C 11,7 C 51 % 1019,4 hPa 0,0 l/m 2 min 0 min 718 W/m 9,7 km/h (2 Bft) 95,74 %
03.05.2022 11:14 15,9 C 17,2 C 11,7 C 51 % 1019,5 hPa 0,0 l/m 2 min 0 min 739 W/m 16,1 km/h (3 Bft) 97,87 %
03.05.2022 11:16 16,1 C 17,2 C 11,7 C 51 % 1019,4 hPa 0,0 l/m 2 min 0 min 742 W/m 16,1 km/h (3 Bft) 95,74 %
03.05.2022 11:18 16,1 C 17,2 C 11,7 C 50 % 1019,5 hPa 0,0 l/m 2 min 0 min 744 W/m 12,9 km/h (3 Bft) 97,87 %
03.05.2022 11:20 16,1 C 17,8 C 12,2 C 51 % 1019,5 hPa 0,0 l/m 2 min 0 min 749 W/m 12,9 km/h (3 Bft) 97,83 %
03.05.2022 11:22 16,2 C 17,8 C 11,7 C 52 % 1019,5 hPa 0,0 l/m 2 min 0 min 751 W/m 16,1 km/h (3 Bft) 97,87 %
03.05.2022 11:24 16,2 C 17,2 C 11,7 C 51 % 1019,4 hPa 0,0 l/m 2 min 0 min 753 W/m 12,9 km/h (3 Bft) 97,87 %
03.05.2022 11:26 16,2 C 17,8 C 12,2 C 52 % 1019,5 hPa 0,0 l/m 2 min 0 min 758 W/m 12,9 km/h (3 Bft) 97,87 %
03.05.2022 11:28 16,2 C 18,3 C 12,8 C 51 % 1019,5 hPa 0,0 l/m 2 min 0 min 762 W/m 16,1 km/h (3 Bft) 97,87 %
03.05.2022 11:30 16,3 C 18,9 C 13,3 C 51 % 1019,4 hPa 0,0 l/m 2 min 0 min 764 W/m 9,7 km/h (2 Bft) 97,87 %
03.05.2022 11:32 16,3 C 19,4 C 13,9 C 52 % 1019,4 hPa 0,0 l/m 2 min 0 min 766 W/m 12,9 km/h (3 Bft) 100,00 %
03.05.2022 11:34 16,4 C 19,4 C 13,9 C 52 % 1019,4 hPa 0,0 l/m 2 min 0 min 770 W/m 9,7 km/h (2 Bft) 100,00 %
03.05.2022 11:36 16,5 C 20,6 C 13,9 C 53 % 1019,4 hPa 0,0 l/m 2 min 0 min 773 W/m 9,7 km/h (2 Bft) 100,00 %
03.05.2022 11:38 16,6 C 20,0 C 14,4 C 51 % 1019,5 hPa 0,0 l/m 2 min 0 min 777 W/m 12,9 km/h (3 Bft) 100,00 %
03.05.2022 11:40 16,5 C 19,4 C 15,0 C 52 % 1019,4 hPa 0,0 l/m 2 min 0 min 779 W/m 16,1 km/h (3 Bft) 100,00 %
03.05.2022 11:42 16,6 C 19,4 C 14,4 C 52 % 1019,5 hPa 0,0 l/m 2 min 0 min 786 W/m 19,3 km/h (3 Bft) 97,87 %
03.05.2022 11:44 16,6 C 20,0 C 13,9 C 52 % 1019,5 hPa 0,0 l/m 2 min 0 min 791 W/m 12,9 km/h (3 Bft) 100,00 %
03.05.2022 11:46 16,7 C 20,0 C 13,9 C 51 % 1019,5 hPa 0,0 l/m 2 min 0 min 789 W/m 9,7 km/h (2 Bft) 100,00 %
03.05.2022 11:48 16,7 C 20,0 C 13,9 C 51 % 1019,5 hPa 0,0 l/m 2 min 0 min 794 W/m 12,9 km/h (3 Bft) 100,00 %
03.05.2022 11:50 16,7 C 20,0 C 13,9 C 51 % 1019,5 hPa 0,0 l/m 2 min 0 min 798 W/m 19,3 km/h (3 Bft) 100,00 %
03.05.2022 11:52 16,8 C 20,0 C 14,4 C 51 % 1019,4 hPa 0,0 l/m 2 min 0 min 803 W/m 12,9 km/h (3 Bft) 100,00 %
03.05.2022 11:54 16,9 C 20,6 C 14,4 C 51 % 1019,4 hPa 0,0 l/m 2 min 0 min 806 W/m 6,4 km/h (2 Bft) 100,00 %
03.05.2022 11:56 17,0 C 20,6 C 14,4 C 51 % 1019,4 hPa 0,0 l/m 2 min 0 min 811 W/m 12,9 km/h (3 Bft) 100,00 %
03.05.2022 11:58 17,1 C 20,0 C 14,4 C 50 % 1019,4 hPa 0,0 l/m 2 min 0 min 811 W/m 12,9 km/h (3 Bft) 100,00 %
03.05.2022 12:00 17,1 C 20,6 C 14,4 C 51 % 1019,4 hPa 0,0 l/m 2 min 0 min 814 W/m 22,5 km/h (4 Bft) 100,00 %
03.05.2022 12:02 17,3 C 21,1 C 14,4 C 51 % 1019,4 hPa 0,0 l/m 2 min 0 min 817 W/m 9,7 km/h (2 Bft) 100,00 %
03.05.2022 12:04 17,3 C 20,6 C 15,0 C 50 % 1019,4 hPa 0,0 l/m 2 min 0 min 819 W/m 22,5 km/h (4 Bft) 100,00 %
03.05.2022 12:07 17,3 C 20,0 C 16,7 C 49 % 1019,4 hPa 0,0 l/m 3 min 0 min 823 W/m 16,1 km/h (3 Bft) 100,00 %
03.05.2022 12:08 17,3 C 20,0 C 17,2 C 50 % 1019,4 hPa 0,0 l/m 1 min 0 min 826 W/m 12,9 km/h (3 Bft) 100,00 %
03.05.2022 12:10 17,4 C 20,6 C 18,3 C 50 % 1019,4 hPa 0,0 l/m 2 min 0 min 828 W/m 16,1 km/h (3 Bft) 100,00 %
03.05.2022 12:12 17,5 C 20,6 C 18,9 C 50 % 1019,4 hPa 0,0 l/m 2 min 0 min 830 W/m 16,1 km/h (3 Bft) 97,83 %
03.05.2022 12:14 17,6 C 21,1 C 20,0 C 50 % 1019,4 hPa 0,0 l/m 2 min 0 min 833 W/m 6,4 km/h (2 Bft) 100,00 %
03.05.2022 12:16 17,7 C 21,7 C 20,0 C 50 % 1019,4 hPa 0,0 l/m 2 min 0 min 836 W/m 16,1 km/h (3 Bft) 100,00 %
03.05.2022 12:18 17,7 C 21,1 C 21,7 C 49 % 1019,3 hPa 0,0 l/m 2 min 0 min 840 W/m 12,9 km/h (3 Bft) 97,87 %
03.05.2022 12:20 17,7 C 21,1 C 21,7 C 49 % 1019,3 hPa 0,0 l/m 2 min 0 min 841 W/m 9,7 km/h (2 Bft) 100,00 %
03.05.2022 12:22 17,8 C 20,6 C 21,7 C 49 % 1019,2 hPa 0,0 l/m 2 min 0 min 844 W/m 19,3 km/h (3 Bft) 100,00 %
03.05.2022 12:24 17,8 C 20,6 C 21,1 C 49 % 1019,2 hPa 0,0 l/m 2 min 0 min 847 W/m 9,7 km/h (2 Bft) 100,00 %
03.05.2022 12:26 17,8 C 20,6 C 21,7 C 49 % 1019,3 hPa 0,0 l/m 2 min 0 min 850 W/m 9,7 km/h (2 Bft) 100,00 %
03.05.2022 12:28 17,8 C 21,1 C 21,7 C 49 % 1019,2 hPa 0,0 l/m 2 min 0 min 850 W/m 12,9 km/h (3 Bft) 100,00 %
03.05.2022 12:30 17,9 C 21,1 C 21,1 C 49 % 1019,2 hPa 0,0 l/m 2 min 0 min 852 W/m 9,7 km/h (2 Bft) 100,00 %
03.05.2022 12:32 17,9 C 21,7 C 21,1 C 48 % 1019,3 hPa 0,0 l/m 2 min 0 min 856 W/m 16,1 km/h (3 Bft) 100,00 %
03.05.2022 12:34 18,1 C 21,7 C 21,7 C 49 % 1019,2 hPa 0,0 l/m 2 min 0 min 856 W/m 12,9 km/h (3 Bft) 100,00 %
03.05.2022 12:36 18,1 C 21,1 C 21,7 C 48 % 1019,1 hPa 0,0 l/m 2 min 0 min 858 W/m 16,1 km/h (3 Bft) 100,00 %
03.05.2022 12:38 18,1 C 21,1 C 21,7 C 48 % 1019,2 hPa 0,0 l/m 2 min 0 min 860 W/m 12,9 km/h (3 Bft) 95,74 %
03.05.2022 12:40 18,2 C 21,1 C 21,7 C 48 % 1019,2 hPa 0,0 l/m 2 min 0 min 863 W/m 22,5 km/h (4 Bft) 97,87 %
03.05.2022 12:42 18,2 C 20,6 C 22,2 C 46 % 1019,2 hPa 0,0 l/m 2 min 0 min 863 W/m 16,1 km/h (3 Bft) 95,74 %
03.05.2022 12:44 18,1 C 20,6 C 21,7 C 47 % 1019,1 hPa 0,0 l/m 2 min 0 min 868 W/m 22,5 km/h (4 Bft) 97,87 %
03.05.2022 12:46 18,1 C 20,6 C 20,6 C 47 % 1019,2 hPa 0,0 l/m 2 min 0 min 867 W/m 19,3 km/h (3 Bft) 97,83 %
03.05.2022 12:48 18,1 C 20,0 C 20,6 C 47 % 1019,2 hPa 0,0 l/m 2 min 0 min 867 W/m 12,9 km/h (3 Bft) 97,87 %
03.05.2022 12:50 18,1 C 20,6 C 20,6 C 48 % 1019,2 hPa 0,0 l/m 2 min 0 min 867 W/m 12,9 km/h (3 Bft) 95,74 %
03.05.2022 12:52 18,1 C 20,6 C 19,4 C 48 % 1019,1 hPa 0,0 l/m 2 min 0 min 868 W/m 16,1 km/h (3 Bft) 97,87 %
03.05.2022 12:54 18,1 C 20,6 C 18,3 C 47 % 1019,1 hPa 0,0 l/m 2 min 0 min 868 W/m 16,1 km/h (3 Bft) 97,87 %
03.05.2022 12:56 18,1 C 21,1 C 16,7 C 47 % 1019,1 hPa 0,0 l/m 2 min 0 min 871 W/m 12,9 km/h (3 Bft) 95,74 %
03.05.2022 12:58 18,1 C 21,7 C 15,6 C 47 % 1019,1 hPa 0,0 l/m 2 min 0 min 873 W/m 6,4 km/h (2 Bft) 97,83 %
03.05.2022 13:00 18,2 C 21,7 C 15,6 C 49 % 1019,1 hPa 0,0 l/m 2 min 0 min 874 W/m 6,4 km/h (2 Bft) 95,74 %
03.05.2022 13:02 18,3 C 22,2 C 15,0 C 48 % 1019,1 hPa 0,0 l/m 2 min 0 min 878 W/m 12,9 km/h (3 Bft) 95,74 %
03.05.2022 13:04 18,4 C 22,2 C 15,0 C 48 % 1019,0 hPa 0,0 l/m 2 min 0 min 878 W/m 16,1 km/h (3 Bft) 95,74 %
03.05.2022 13:06 18,4 C 22,2 C 15,0 C 48 % 1019,0 hPa 0,0 l/m 2 min 0 min 880 W/m 12,9 km/h (3 Bft) 95,74 %
03.05.2022 13:08 18,5 C 22,2 C 14,4 C 47 % 1019,1 hPa 0,0 l/m 2 min 0 min 886 W/m 16,1 km/h (3 Bft) 95,74 %
03.05.2022 13:10 18,5 C 21,7 C 14,4 C 47 % 1019,0 hPa 0,0 l/m 2 min 0 min 885 W/m 12,9 km/h (3 Bft) 95,65 %
03.05.2022 13:12 18,4 C 21,1 C 14,4 C 47 % 1019,1 hPa 0,0 l/m 2 min 0 min 882 W/m 16,1 km/h (3 Bft) 95,74 %
03.05.2022 13:14 18,4 C 21,1 C 14,4 C 46 % 1019,0 hPa 0,0 l/m 2 min 0 min 881 W/m 12,9 km/h (3 Bft) 93,62 %
03.05.2022 13:16 18,3 C 21,1 C 13,9 C 46 % 1019,0 hPa 0,0 l/m 2 min 0 min 882 W/m 6,4 km/h (2 Bft) 95,74 %
03.05.2022 13:18 18,4 C 21,7 C 13,9 C 47 % 1019,0 hPa 0,0 l/m 2 min 0 min 884 W/m 16,1 km/h (3 Bft) 95,74 %
03.05.2022 13:20 18,4 C 21,7 C 13,9 C 46 % 1018,9 hPa 0,0 l/m 2 min 0 min 883 W/m 16,1 km/h (3 Bft) 95,74 %
03.05.2022 13:22 18,4 C 21,1 C 13,9 C 46 % 1018,9 hPa 0,0 l/m 2 min 0 min 887 W/m 12,9 km/h (3 Bft) 97,83 %
03.05.2022 13:24 18,3 C 20,6 C 13,9 C 47 % 1018,9 hPa 0,0 l/m 2 min 0 min 887 W/m 22,5 km/h (4 Bft) 97,87 %
03.05.2022 13:26 18,3 C 20,6 C 14,4 C 47 % 1018,9 hPa 0,0 l/m 2 min 0 min 888 W/m 16,1 km/h (3 Bft) 97,87 %
03.05.2022 13:28 18,3 C 20,6 C 14,4 C 47 % 1018,9 hPa 0,0 l/m 2 min 0 min 887 W/m 9,7 km/h (2 Bft) 95,74 %
03.05.2022 13:30 18,3 C 21,7 C 15,0 C 48 % 1018,8 hPa 0,0 l/m 2 min 0 min 888 W/m 9,7 km/h (2 Bft) 97,87 %
03.05.2022 13:32 18,4 C 22,2 C 16,1 C 47 % 1018,8 hPa 0,0 l/m 2 min 0 min 888 W/m 9,7 km/h (2 Bft) 97,87 %
03.05.2022 13:34 18,6 C 22,2 C 17,2 C 47 % 1018,9 hPa 0,0 l/m 2 min 0 min 888 W/m 9,7 km/h (2 Bft) 97,83 %
03.05.2022 13:36 18,6 C 22,8 C 20,0 C 46 % 1018,8 hPa 0,0 l/m 2 min 0 min 889 W/m 12,9 km/h (3 Bft) 95,74 %
03.05.2022 13:38 18,6 C 22,8 C 20,0 C 47 % 1018,8 hPa 0,0 l/m 2 min 0 min 888 W/m 6,4 km/h (2 Bft) 100,00 %
03.05.2022 13:40 18,7 C 22,2 C 21,7 C 46 % 1018,8 hPa 0,0 l/m 2 min 0 min 889 W/m 9,7 km/h (2 Bft) 97,87 %
03.05.2022 13:42 18,6 C 22,2 C 21,7 C 46 % 1018,7 hPa 0,0 l/m 2 min 0 min 886 W/m 12,9 km/h (3 Bft) 97,87 %
03.05.2022 13:44 18,7 C 22,8 C 20,0 C 47 % 1018,7 hPa 0,0 l/m 2 min 0 min 886 W/m 6,4 km/h (2 Bft) 100,00 %
03.05.2022 13:46 18,8 C 22,8 C 19,4 C 47 % 1018,7 hPa 0,0 l/m 2 min 0 min 888 W/m 12,9 km/h (3 Bft) 100,00 %
03.05.2022 13:48 18,9 C 23,3 C 18,3 C 47 % 1018,7 hPa 0,0 l/m 2 min 0 min 886 W/m 12,9 km/h (3 Bft) 100,00 %
03.05.2022 13:50 19,1 C 22,8 C 17,8 C 47 % 1018,7 hPa 0,0 l/m 2 min 0 min 888 W/m 16,1 km/h (3 Bft) 100,00 %
03.05.2022 13:52 19,1 C 22,8 C 16,7 C 46 % 1018,7 hPa 0,0 l/m 2 min 0 min 883 W/m 9,7 km/h (2 Bft) 100,00 %
03.05.2022 13:54 19,1 C 22,8 C 16,1 C 47 % 1018,7 hPa 0,0 l/m 2 min 0 min 887 W/m 19,3 km/h (3 Bft) 100,00 %
03.05.2022 13:56 19,1 C 22,8 C 15,6 C 46 % 1018,6 hPa 0,0 l/m 2 min 0 min 884 W/m 9,7 km/h (2 Bft) 100,00 %
03.05.2022 13:58 19,1 C 23,3 C 15,6 C 45 % 1018,6 hPa 0,0 l/m 2 min 0 min 883 W/m 6,4 km/h (2 Bft) 100,00 %
03.05.2022 14:00 19,2 C 23,9 C 15,6 C 46 % 1018,5 hPa 0,0 l/m 2 min 0 min 880 W/m 6,4 km/h (2 Bft) 97,87 %
03.05.2022 14:02 19,2 C 23,3 C 15,0 C 46 % 1018,5 hPa 0,0 l/m 2 min 0 min 884 W/m 12,9 km/h (3 Bft) 100,00 %
03.05.2022 14:04 19,2 C 23,9 C 15,0 C 46 % 1018,5 hPa 0,0 l/m 2 min 0 min 882 W/m 6,4 km/h (2 Bft) 97,87 %
03.05.2022 14:06 19,3 C 23,9 C 15,0 C 46 % 1018,5 hPa 0,0 l/m 2 min 0 min 881 W/m 9,7 km/h (2 Bft) 100,00 %
03.05.2022 14:08 19,3 C 23,9 C 15,0 C 45 % 1018,5 hPa 0,0 l/m 2 min 0 min 879 W/m 9,7 km/h (2 Bft) 97,87 %
03.05.2022 14:10 19,4 C 23,3 C 14,4 C 45 % 1018,5 hPa 0,0 l/m 2 min 0 min 881 W/m 19,3 km/h (3 Bft) 100,00 %
03.05.2022 14:12 19,3 C 22,8 C 15,0 C 46 % 1018,5 hPa 0,0 l/m 2 min 0 min 879 W/m 19,3 km/h (3 Bft) 100,00 %
03.05.2022 14:14 19,3 C 22,8 C 14,4 C 45 % 1018,5 hPa 0,0 l/m 2 min 0 min 875 W/m 12,9 km/h (3 Bft) 97,87 %
03.05.2022 14:16 19,3 C 23,3 C 14,4 C 45 % 1018,5 hPa 0,0 l/m 2 min 0 min 874 W/m 12,9 km/h (3 Bft) 100,00 %
03.05.2022 14:18 19,3 C 23,3 C 14,4 C 45 % 1018,4 hPa 0,0 l/m 2 min 0 min 877 W/m 9,7 km/h (2 Bft) 100,00 %
03.05.2022 14:20 19,2 C 22,8 C 14,4 C 45 % 1018,5 hPa 0,0 l/m 2 min 0 min 875 W/m 9,7 km/h (2 Bft) 100,00 %
03.05.2022 14:22 19,2 C 22,8 C 14,4 C 46 % 1018,5 hPa 0,0 l/m 2 min 0 min 873 W/m 16,1 km/h (3 Bft) 97,83 %
03.05.2022 14:24 19,2 C 22,8 C 14,4 C 46 % 1018,4 hPa 0,0 l/m 2 min 0 min 872 W/m 19,3 km/h (3 Bft) 97,87 %
03.05.2022 14:26 19,3 C 23,3 C 15,0 C 46 % 1018,4 hPa 0,0 l/m 2 min 0 min 869 W/m 12,9 km/h (3 Bft) 100,00 %
03.05.2022 14:28 19,3 C 23,3 C 15,0 C 47 % 1018,3 hPa 0,0 l/m 2 min 0 min 869 W/m 6,4 km/h (2 Bft) 100,00 %
03.05.2022 14:30 19,3 C 22,8 C 15,0 C 46 % 1018,4 hPa 0,0 l/m 2 min 0 min 869 W/m 9,7 km/h (2 Bft) 95,74 %
03.05.2022 14:32 19,3 C 22,8 C 15,0 C 46 % 1018,3 hPa 0,0 l/m 2 min 0 min 867 W/m 12,9 km/h (3 Bft) 97,87 %
03.05.2022 14:34 19,4 C 22,8 C 15,0 C 46 % 1018,3 hPa 0,0 l/m 2 min 0 min 863 W/m 16,1 km/h (3 Bft) 97,83 %
03.05.2022 14:36 19,4 C 22,8 C 15,0 C 46 % 1018,3 hPa 0,0 l/m 2 min 0 min 860 W/m 12,9 km/h (3 Bft) 97,87 %
03.05.2022 14:38 19,4 C 22,8 C 15,0 C 47 % 1018,3 hPa 0,0 l/m 2 min 0 min 860 W/m 16,1 km/h (3 Bft) 97,87 %
03.05.2022 14:40 19,4 C 22,8 C 15,0 C 46 % 1018,3 hPa 0,0 l/m 2 min 0 min 860 W/m 22,5 km/h (4 Bft) 97,87 %
03.05.2022 14:42 19,4 C 22,8 C 15,0 C 47 % 1018,3 hPa 0,0 l/m 2 min 0 min 860 W/m 16,1 km/h (3 Bft) 97,87 %
03.05.2022 14:44 19,4 C 22,8 C 15,0 C 47 % 1018,4 hPa 0,0 l/m 2 min 0 min 854 W/m 19,3 km/h (3 Bft) 95,65 %
03.05.2022 14:46 19,4 C 22,8 C 15,0 C 46 % 1018,3 hPa 0,0 l/m 2 min 0 min 853 W/m 9,7 km/h (2 Bft) 97,87 %
03.05.2022 14:48 19,4 C 22,8 C 15,0 C 46 % 1018,3 hPa 0,0 l/m 2 min 0 min 850 W/m 12,9 km/h (3 Bft) 97,87 %
03.05.2022 14:50 19,4 C 23,3 C 15,0 C 46 % 1018,2 hPa 0,0 l/m 2 min 0 min 849 W/m 12,9 km/h (3 Bft) 95,74 %
03.05.2022 14:52 19,4 C 23,3 C 14,4 C 46 % 1018,2 hPa 0,0 l/m 2 min 0 min 846 W/m 22,5 km/h (4 Bft) 97,87 %
03.05.2022 14:54 19,4 C 23,3 C 14,4 C 46 % 1018,2 hPa 0,0 l/m 2 min 0 min 840 W/m 16,1 km/h (3 Bft) 97,87 %
03.05.2022 14:56 19,4 C 23,9 C 14,4 C 46 % 1018,2 hPa 0,0 l/m 2 min 0 min 837 W/m 12,9 km/h (3 Bft) 97,87 %
03.05.2022 14:58 19,5 C 23,3 C 14,4 C 46 % 1018,2 hPa 0,0 l/m 2 min 0 min 836 W/m 19,3 km/h (3 Bft) 95,65 %
03.05.2022 15:00 19,4 C 22,8 C 14,4 C 47 % 1018,1 hPa 0,0 l/m 2 min 0 min 832 W/m 12,9 km/h (3 Bft) 95,74 %
03.05.2022 15:02 19,3 C 22,8 C 14,4 C 48 % 1018,1 hPa 0,0 l/m 2 min 0 min 831 W/m 35,4 km/h (5 Bft) 93,62 %
03.05.2022 15:04 19,4 C 23,3 C 14,4 C 47 % 1018,1 hPa 0,0 l/m 2 min 0 min 830 W/m 12,9 km/h (3 Bft) 95,74 %
03.05.2022 15:06 19,4 C 23,3 C 14,4 C 48 % 1018,0 hPa 0,0 l/m 2 min 0 min 825 W/m 12,9 km/h (3 Bft) 95,74 %
03.05.2022 15:08 19,5 C 23,3 C 14,4 C 48 % 1018,0 hPa 0,0 l/m 2 min 0 min 821 W/m 9,7 km/h (2 Bft) 95,74 %
03.05.2022 15:10 19,5 C 23,3 C 14,4 C 47 % 1018,0 hPa 0,0 l/m 2 min 0 min 818 W/m 22,5 km/h (4 Bft) 95,65 %
03.05.2022 15:12 19,4 C 22,8 C 14,4 C 46 % 1018,0 hPa 0,0 l/m 2 min 0 min 818 W/m 16,1 km/h (3 Bft) 95,74 %
03.05.2022 15:14 19,4 C 22,8 C 14,4 C 46 % 1018,0 hPa 0,0 l/m 2 min 0 min 816 W/m 19,3 km/h (3 Bft) 93,62 %
03.05.2022 15:16 19,5 C 22,8 C 14,4 C 46 % 1018,0 hPa 0,0 l/m 2 min 0 min 821 W/m 19,3 km/h (3 Bft) 93,62 %
03.05.2022 15:18 19,5 C 23,3 C 14,4 C 46 % 1018,0 hPa 0,0 l/m 2 min 0 min 806 W/m 19,3 km/h (3 Bft) 91,49 %
03.05.2022 15:20 19,5 C 23,3 C 14,4 C 46 % 1017,9 hPa 0,0 l/m 2 min 0 min 802 W/m 9,7 km/h (2 Bft) 93,62 %
03.05.2022 15:22 19,6 C 23,9 C 15,0 C 46 % 1017,9 hPa 0,0 l/m 2 min 0 min 796 W/m 6,4 km/h (2 Bft) 95,65 %
03.05.2022 15:24 19,7 C 23,9 C 15,0 C 47 % 1017,9 hPa 0,0 l/m 2 min 0 min 802 W/m 9,7 km/h (2 Bft) 93,62 %
03.05.2022 15:26 19,7 C 24,4 C 15,0 C 46 % 1017,9 hPa 0,0 l/m 2 min 0 min 799 W/m 12,9 km/h (3 Bft) 93,62 %
03.05.2022 15:28 19,8 C 24,4 C 15,0 C 48 % 1017,8 hPa 0,0 l/m 2 min 0 min 796 W/m 6,4 km/h (2 Bft) 93,62 %
03.05.2022 15:30 19,9 C 24,4 C 15,0 C 47 % 1017,9 hPa 0,0 l/m 2 min 0 min 794 W/m 9,7 km/h (2 Bft) 95,74 %
03.05.2022 15:32 19,9 C 24,4 C 15,0 C 46 % 1017,8 hPa 0,0 l/m 2 min 0 min 793 W/m 12,9 km/h (3 Bft) 93,62 %
03.05.2022 15:34 20,0 C 25,0 C 15,0 C 47 % 1017,7 hPa 0,0 l/m 2 min 0 min 790 W/m 9,7 km/h (2 Bft) 95,65 %
03.05.2022 15:36 19,9 C 24,4 C 15,0 C 46 % 1017,8 hPa 0,0 l/m 2 min 0 min 787 W/m 22,5 km/h (4 Bft) 93,62 %
03.05.2022 15:38 19,9 C 24,4 C 15,0 C 47 % 1017,7 hPa 0,0 l/m 2 min 0 min 780 W/m 12,9 km/h (3 Bft) 95,74 %
03.05.2022 15:40 20,0 C 23,9 C 15,0 C 46 % 1017,8 hPa 0,0 l/m 2 min 0 min 777 W/m 12,9 km/h (3 Bft) 97,87 %
03.05.2022 15:42 19,9 C 23,3 C 15,0 C 46 % 1017,7 hPa 0,0 l/m 2 min 0 min 771 W/m 9,7 km/h (2 Bft) 97,87 %
03.05.2022 15:44 19,8 C 23,3 C 15,0 C 46 % 1017,7 hPa 0,0 l/m 2 min 0 min 769 W/m 16,1 km/h (3 Bft) 97,87 %
03.05.2022 15:46 19,7 C 22,8 C 14,4 C 45 % 1017,7 hPa 0,0 l/m 2 min 0 min 766 W/m 12,9 km/h (3 Bft) 97,83 %
03.05.2022 15:48 19,6 C 23,9 C 15,0 C 46 % 1017,7 hPa 0,0 l/m 2 min 0 min 758 W/m 6,4 km/h (2 Bft) 97,87 %
03.05.2022 15:50 19,6 C 24,4 C 15,0 C 48 % 1017,6 hPa 0,0 l/m 2 min 0 min 756 W/m 6,4 km/h (2 Bft) 95,74 %
03.05.2022 15:52 19,7 C 24,4 C 15,0 C 48 % 1017,7 hPa 0,0 l/m 2 min 0 min 751 W/m 16,1 km/h (3 Bft) 97,87 %
03.05.2022 15:54 19,7 C 23,9 C 15,0 C 46 % 1017,7 hPa 0,0 l/m 2 min 0 min 748 W/m 19,3 km/h (3 Bft) 100,00 %
03.05.2022 15:56 19,7 C 23,9 C 15,0 C 47 % 1017,7 hPa 0,0 l/m 2 min 0 min 745 W/m 19,3 km/h (3 Bft) 100,00 %
03.05.2022 15:58 19,8 C 23,9 C 15,0 C 47 % 1017,7 hPa 0,0 l/m 2 min 0 min 743 W/m 16,1 km/h (3 Bft) 100,00 %
03.05.2022 16:00 19,8 C 25,0 C 15,0 C 46 % 1017,7 hPa 0,0 l/m 2 min 0 min 740 W/m 19,3 km/h (3 Bft) 97,87 %
03.05.2022 16:02 19,8 C 25,6 C 15,0 C 46 % 1017,6 hPa 0,0 l/m 2 min 0 min 734 W/m 9,7 km/h (2 Bft) 100,00 %
03.05.2022 16:04 19,9 C 25,6 C 15,0 C 46 % 1017,7 hPa 0,0 l/m 2 min 0 min 726 W/m 25,7 km/h (4 Bft) 100,00 %
03.05.2022 16:06 19,8 C 25,0 C 15,0 C 46 % 1017,7 hPa 0,0 l/m 2 min 0 min 725 W/m 16,1 km/h (3 Bft) 100,00 %
03.05.2022 16:08 19,7 C 25,6 C 15,0 C 47 % 1017,7 hPa 0,0 l/m 2 min 0 min 719 W/m 12,9 km/h (3 Bft) 97,87 %
03.05.2022 16:10 19,7 C 26,1 C 15,0 C 47 % 1017,6 hPa 0,0 l/m 2 min 0 min 718 W/m 12,9 km/h (3 Bft) 100,00 %
03.05.2022 16:12 19,8 C 25,6 C 15,6 C 46 % 1017,6 hPa 0,0 l/m 2 min 0 min 714 W/m 19,3 km/h (3 Bft) 100,00 %
03.05.2022 16:14 19,9 C 26,1 C 15,6 C 47 % 1017,6 hPa 0,0 l/m 2 min 0 min 712 W/m 12,9 km/h (3 Bft) 100,00 %
03.05.2022 16:16 19,9 C 26,1 C 15,6 C 46 % 1017,6 hPa 0,0 l/m 2 min 0 min 705 W/m 9,7 km/h (2 Bft) 100,00 %
03.05.2022 16:18 20,0 C 25,6 C 15,0 C 46 % 1017,5 hPa 0,0 l/m 2 min 0 min 702 W/m 6,4 km/h (2 Bft) 100,00 %
03.05.2022 16:20 20,1 C 26,1 C 15,0 C 46 % 1017,6 hPa 0,0 l/m 2 min 0 min 700 W/m 12,9 km/h (3 Bft) 100,00 %
03.05.2022 16:22 20,1 C 26,7 C 15,6 C 47 % 1017,6 hPa 0,0 l/m 2 min 0 min 696 W/m 12,9 km/h (3 Bft) 100,00 %
03.05.2022 16:24 20,0 C 26,1 C 15,6 C 46 % 1017,4 hPa 0,0 l/m 2 min 0 min 689 W/m 16,1 km/h (3 Bft) 100,00 %
03.05.2022 16:26 20,0 C 26,1 C 15,6 C 47 % 1017,5 hPa 0,0 l/m 2 min 0 min 688 W/m 16,1 km/h (3 Bft) 100,00 %
03.05.2022 16:28 19,9 C 26,1 C 15,6 C 47 % 1017,5 hPa 0,0 l/m 2 min 0 min 685 W/m 16,1 km/h (3 Bft) 97,87 %
03.05.2022 16:30 20,0 C 26,7 C 16,1 C 47 % 1017,5 hPa 0,0 l/m 2 min 0 min 680 W/m 16,1 km/h (3 Bft) 100,00 %
03.05.2022 16:32 20,0 C 26,1 C 16,1 C 46 % 1017,5 hPa 0,0 l/m 2 min 0 min 674 W/m 16,1 km/h (3 Bft) 100,00 %
03.05.2022 16:34 20,0 C 26,1 C 15,6 C 46 % 1017,5 hPa 0,0 l/m 2 min 0 min 671 W/m 9,7 km/h (2 Bft) 100,00 %
03.05.2022 16:36 20,0 C 26,1 C 15,6 C 47 % 1017,5 hPa 0,0 l/m 2 min 0 min 662 W/m 6,4 km/h (2 Bft) 100,00 %
03.05.2022 16:38 20,1 C 26,7 C 16,1 C 49 % 1017,5 hPa 0,0 l/m 2 min 0 min 655 W/m 16,1 km/h (3 Bft) 97,87 %
03.05.2022 16:40 20,1 C 27,2 C 16,1 C 48 % 1017,5 hPa 0,0 l/m 2 min 0 min 649 W/m 12,9 km/h (3 Bft) 97,87 %
03.05.2022 16:42 20,2 C 26,7 C 16,1 C 48 % 1017,4 hPa 0,0 l/m 2 min 0 min 644 W/m 16,1 km/h (3 Bft) 100,00 %
03.05.2022 16:44 20,1 C 26,7 C 16,1 C 48 % 1017,5 hPa 0,0 l/m 2 min 0 min 645 W/m 16,1 km/h (3 Bft) 100,00 %
03.05.2022 16:46 20,2 C 26,1 C 16,1 C 48 % 1017,5 hPa 0,0 l/m 2 min 0 min 632 W/m 22,5 km/h (4 Bft) 100,00 %
03.05.2022 16:48 20,2 C 26,1 C 16,1 C 48 % 1017,5 hPa 0,0 l/m 2 min 0 min 625 W/m 16,1 km/h (3 Bft) 100,00 %
03.05.2022 16:50 20,2 C 26,7 C 16,7 C 48 % 1017,5 hPa 0,0 l/m 2 min 0 min 635 W/m 16,1 km/h (3 Bft) 100,00 %
03.05.2022 16:52 20,1 C 26,1 C 16,1 C 47 % 1017,4 hPa 0,0 l/m 2 min 0 min 642 W/m 16,1 km/h (3 Bft) 100,00 %
03.05.2022 16:54 20,1 C 26,1 C 16,1 C 48 % 1017,4 hPa 0,0 l/m 2 min 0 min 650 W/m 16,1 km/h (3 Bft) 100,00 %
03.05.2022 16:56 20,1 C 26,7 C 16,1 C 49 % 1017,4 hPa 0,0 l/m 2 min 0 min 656 W/m 12,9 km/h (3 Bft) 100,00 %
03.05.2022 16:58 20,2 C 26,7 C 16,7 C 49 % 1017,4 hPa 0,0 l/m 2 min 0 min 646 W/m 6,4 km/h (2 Bft) 100,00 %
03.05.2022 17:00 20,4 C 26,7 C 16,7 C 48 % 1017,4 hPa 0,0 l/m 2 min 0 min 640 W/m 6,4 km/h (2 Bft) 100,00 %
03.05.2022 17:02 20,5 C 26,7 C 16,7 C 48 % 1017,4 hPa 0,0 l/m 2 min 0 min 631 W/m 12,9 km/h (3 Bft) 97,87 %
03.05.2022 17:04 20,4 C 26,1 C 16,7 C 48 % 1017,4 hPa 0,0 l/m 2 min 0 min 614 W/m 19,3 km/h (3 Bft) 100,00 %
03.05.2022 17:06 20,3 C 25,6 C 16,7 C 48 % 1017,4 hPa 0,0 l/m 2 min 0 min 601 W/m 12,9 km/h (3 Bft) 95,74 %
03.05.2022 17:08 20,2 C 25,6 C 16,7 C 48 % 1017,4 hPa 0,0 l/m 2 min 0 min 592 W/m 22,5 km/h (4 Bft) 97,83 %
03.05.2022 17:10 20,2 C 25,0 C 16,1 C 49 % 1017,4 hPa 0,0 l/m 2 min 0 min 585 W/m 22,5 km/h (4 Bft) 100,00 %
03.05.2022 17:12 20,1 C 25,6 C 16,1 C 48 % 1017,4 hPa 0,0 l/m 2 min 0 min 580 W/m 9,7 km/h (2 Bft) 100,00 %
03.05.2022 17:14 20,1 C 26,1 C 16,1 C 48 % 1017,4 hPa 0,0 l/m 2 min 0 min 567 W/m 9,7 km/h (2 Bft) 100,00 %
03.05.2022 17:16 20,1 C 26,1 C 16,7 C 48 % 1017,4 hPa 0,0 l/m 2 min 0 min 558 W/m 9,7 km/h (2 Bft) 95,74 %
03.05.2022 17:18 20,2 C 26,7 C 16,7 C 48 % 1017,4 hPa 0,0 l/m 2 min 0 min 553 W/m 6,4 km/h (2 Bft) 97,87 %
03.05.2022 17:20 20,3 C 27,2 C 16,7 C 49 % 1017,3 hPa 0,0 l/m 2 min 0 min 548 W/m 6,4 km/h (2 Bft) 97,83 %
03.05.2022 17:22 20,4 C 27,2 C 17,2 C 49 % 1017,3 hPa 0,0 l/m 2 min 0 min 547 W/m 22,5 km/h (4 Bft) 97,87 %
03.05.2022 17:24 20,3 C 25,6 C 16,1 C 48 % 1017,4 hPa 0,0 l/m 2 min 0 min 548 W/m 16,1 km/h (3 Bft) 93,62 %
03.05.2022 17:26 20,3 C 25,6 C 16,1 C 49 % 1017,3 hPa 0,0 l/m 2 min 0 min 545 W/m 12,9 km/h (3 Bft) 97,87 %
03.05.2022 17:28 20,2 C 25,6 C 16,1 C 49 % 1017,3 hPa 0,0 l/m 2 min 0 min 540 W/m 16,1 km/h (3 Bft) 95,74 %
03.05.2022 17:30 20,2 C 25,6 C 16,7 C 50 % 1017,3 hPa 0,0 l/m 2 min 0 min 540 W/m 16,1 km/h (3 Bft) 97,87 %
03.05.2022 17:32 20,1 C 25,0 C 16,7 C 49 % 1017,3 hPa 0,0 l/m 2 min 0 min 542 W/m 19,3 km/h (3 Bft) 97,83 %
03.05.2022 17:34 20,1 C 25,0 C 16,7 C 50 % 1017,2 hPa 0,0 l/m 2 min 0 min 546 W/m 16,1 km/h (3 Bft) 97,87 %
03.05.2022 17:36 20,1 C 25,6 C 16,7 C 50 % 1017,3 hPa 0,0 l/m 2 min 0 min 556 W/m 12,9 km/h (3 Bft) 97,87 %
03.05.2022 17:38 20,1 C 25,6 C 16,7 C 49 % 1017,2 hPa 0,0 l/m 2 min 0 min 566 W/m 22,5 km/h (4 Bft) 95,74 %
03.05.2022 17:40 20,1 C 25,0 C 16,1 C 49 % 1017,3 hPa 0,0 l/m 2 min 0 min 560 W/m 12,9 km/h (3 Bft) 97,87 %
03.05.2022 17:42 20,1 C 25,6 C 16,7 C 51 % 1017,3 hPa 0,0 l/m 2 min 0 min 537 W/m 6,4 km/h (2 Bft) 97,87 %
03.05.2022 17:44 20,1 C 25,0 C 16,7 C 50 % 1017,2 hPa 0,0 l/m 2 min 0 min 518 W/m 9,7 km/h (2 Bft) 97,83 %
03.05.2022 17:46 20,1 C 25,6 C 16,7 C 50 % 1017,3 hPa 0,0 l/m 2 min 0 min 511 W/m 9,7 km/h (2 Bft) 91,49 %
03.05.2022 17:48 20,2 C 26,1 C 17,2 C 50 % 1017,3 hPa 0,0 l/m 2 min 0 min 502 W/m 12,9 km/h (3 Bft) 93,62 %
03.05.2022 17:50 20,3 C 26,1 C 17,2 C 49 % 1017,3 hPa 0,0 l/m 2 min 0 min 496 W/m 19,3 km/h (3 Bft) 93,62 %
03.05.2022 17:52 20,3 C 26,1 C 16,7 C 49 % 1017,3 hPa 0,0 l/m 2 min 0 min 492 W/m 16,1 km/h (3 Bft) 93,62 %
03.05.2022 17:54 20,3 C 26,7 C 17,2 C 50 % 1017,2 hPa 0,0 l/m 2 min 0 min 494 W/m 6,4 km/h (2 Bft) 93,62 %
03.05.2022 17:56 20,4 C 27,2 C 17,2 C 49 % 1017,2 hPa 0,0 l/m 2 min 0 min 495 W/m 16,1 km/h (3 Bft) 95,65 %
03.05.2022 17:58 20,4 C 26,1 C 16,7 C 49 % 1017,3 hPa 0,0 l/m 2 min 0 min 487 W/m 22,5 km/h (4 Bft) 95,74 %
03.05.2022 18:00 20,4 C 26,1 C 17,2 C 49 % 1017,2 hPa 0,0 l/m 2 min 0 min 483 W/m 19,3 km/h (3 Bft) 95,74 %
03.05.2022 18:02 20,3 C 25,6 C 16,7 C 49 % 1017,2 hPa 0,0 l/m 2 min 0 min 474 W/m 19,3 km/h (3 Bft) 95,74 %
03.05.2022 18:04 20,2 C 26,1 C 16,7 C 48 % 1017,2 hPa 0,0 l/m 2 min 0 min 468 W/m 16,1 km/h (3 Bft) 95,74 %
03.05.2022 18:07 19,9 C 23,3 C 16,1 C 48 % 1017,3 hPa 0,0 l/m 3 min 0 min 449 W/m 19,3 km/h (3 Bft) 94,29 %
03.05.2022 18:08 19,8 C 22,8 C 16,1 C 49 % 1017,3 hPa 0,0 l/m 1 min 0 min 448 W/m 12,9 km/h (3 Bft) 95,65 %
03.05.2022 18:10 19,8 C 23,3 C 16,1 C 50 % 1017,2 hPa 0,0 l/m 2 min 0 min 418 W/m 16,1 km/h (3 Bft) 93,62 %
03.05.2022 18:12 19,7 C 21,7 C 15,6 C 49 % 1017,2 hPa 0,0 l/m 2 min 0 min 226 W/m 12,9 km/h (3 Bft) 95,74 %
03.05.2022 18:14 19,6 C 20,6 C 15,6 C 50 % 1017,2 hPa 0,0 l/m 0 min 0 min 88 W/m 12,9 km/h (3 Bft) 95,74 %
03.05.2022 18:16 19,4 C 20,6 C 15,0 C 50 % 1017,2 hPa 0,0 l/m 0 min 0 min 91 W/m 16,1 km/h (3 Bft) 93,62 %
03.05.2022 18:18 19,3 C 20,6 C 15,0 C 51 % 1017,2 hPa 0,0 l/m 0 min 0 min 93 W/m 12,9 km/h (3 Bft) 95,74 %
03.05.2022 18:20 19,2 C 21,1 C 15,0 C 50 % 1017,2 hPa 0,0 l/m 0 min 0 min 120 W/m 12,9 km/h (3 Bft) 95,65 %
03.05.2022 18:22 19,2 C 20,0 C 15,0 C 51 % 1017,1 hPa 0,0 l/m 0 min 0 min 101 W/m 12,9 km/h (3 Bft) 93,62 %
03.05.2022 18:24 19,0 C 20,6 C 14,4 C 50 % 1017,2 hPa 0,0 l/m 0 min 0 min 147 W/m 16,1 km/h (3 Bft) 95,74 %
03.05.2022 18:26 18,9 C 21,7 C 14,4 C 51 % 1017,1 hPa 0,0 l/m 2 min 0 min 291 W/m 12,9 km/h (3 Bft) 93,62 %
03.05.2022 18:28 18,8 C 22,8 C 15,0 C 52 % 1017,1 hPa 0,0 l/m 2 min 0 min 344 W/m 16,1 km/h (3 Bft) 97,87 %
03.05.2022 18:30 18,8 C 22,8 C 15,0 C 52 % 1017,1 hPa 0,0 l/m 2 min 0 min 227 W/m 12,9 km/h (3 Bft) 97,87 %
03.05.2022 18:32 18,8 C 22,8 C 14,4 C 51 % 1017,1 hPa 0,0 l/m 2 min 0 min 185 W/m 12,9 km/h (3 Bft) 95,65 %
03.05.2022 18:34 18,8 C 23,3 C 14,4 C 52 % 1017,1 hPa 0,0 l/m 2 min 0 min 341 W/m 16,1 km/h (3 Bft) 97,87 %
03.05.2022 18:36 18,8 C 23,9 C 14,4 C 53 % 1017,0 hPa 0,0 l/m 2 min 0 min 339 W/m 6,4 km/h (2 Bft) 97,87 %
03.05.2022 18:38 18,8 C 24,4 C 14,4 C 54 % 1017,1 hPa 0,0 l/m 2 min 0 min 328 W/m 16,1 km/h (3 Bft) 95,74 %
03.05.2022 18:40 18,8 C 24,4 C 14,4 C 53 % 1017,1 hPa 0,0 l/m 2 min 0 min 320 W/m 12,9 km/h (3 Bft) 97,87 %
03.05.2022 18:42 18,8 C 25,0 C 13,9 C 53 % 1017,0 hPa 0,0 l/m 2 min 0 min 314 W/m 9,7 km/h (2 Bft) 95,74 %
03.05.2022 18:44 18,8 C 23,9 C 13,9 C 52 % 1017,1 hPa 0,0 l/m 2 min 0 min 302 W/m 16,1 km/h (3 Bft) 95,65 %
03.05.2022 18:46 18,8 C 23,9 C 13,9 C 54 % 1017,0 hPa 0,0 l/m 2 min 0 min 291 W/m 16,1 km/h (3 Bft) 100,00 %
03.05.2022 18:48 18,7 C 23,9 C 13,9 C 54 % 1017,1 hPa 0,0 l/m 2 min 0 min 281 W/m 9,7 km/h (2 Bft) 97,87 %
03.05.2022 18:50 18,7 C 22,8 C 13,9 C 53 % 1017,1 hPa 0,0 l/m 2 min 0 min 239 W/m 16,1 km/h (3 Bft) 100,00 %
03.05.2022 18:52 18,7 C 21,1 C 13,9 C 53 % 1017,1 hPa 0,0 l/m 2 min 0 min 161 W/m 12,9 km/h (3 Bft) 100,00 %
03.05.2022 18:54 18,6 C 20,0 C 13,9 C 53 % 1017,2 hPa 0,0 l/m 0 min 0 min 90 W/m 9,7 km/h (2 Bft) 100,00 %
03.05.2022 18:56 18,5 C 18,9 C 13,9 C 54 % 1017,1 hPa 0,0 l/m 2 min 0 min 160 W/m 16,1 km/h (3 Bft) 97,83 %
03.05.2022 18:58 18,4 C 18,3 C 13,3 C 54 % 1017,2 hPa 0,0 l/m 0 min 0 min 114 W/m 6,4 km/h (2 Bft) 100,00 %
03.05.2022 19:00 18,3 C 18,3 C 13,3 C 54 % 1017,2 hPa 0,0 l/m 0 min 0 min 74 W/m 19,3 km/h (3 Bft) 97,87 %
03.05.2022 19:02 18,2 C 17,8 C 13,3 C 55 % 1017,2 hPa 0,0 l/m 0 min 0 min 97 W/m 12,9 km/h (3 Bft) 100,00 %
03.05.2022 19:04 18,1 C 17,8 C 13,3 C 55 % 1017,2 hPa 0,0 l/m 0 min 0 min 96 W/m 12,9 km/h (3 Bft) 100,00 %
03.05.2022 19:06 18,0 C 17,2 C 13,3 C 54 % 1017,2 hPa 0,0 l/m 2 min 0 min 216 W/m 9,7 km/h (2 Bft) 100,00 %
03.05.2022 19:08 17,9 C 17,2 C 13,3 C 55 % 1017,2 hPa 0,0 l/m 0 min 0 min 116 W/m 16,1 km/h (3 Bft) 100,00 %
03.05.2022 19:10 17,8 C 17,2 C 13,3 C 56 % 1017,2 hPa 0,0 l/m 0 min 0 min 120 W/m 16,1 km/h (3 Bft) 100,00 %
03.05.2022 19:12 17,8 C 17,2 C 13,3 C 56 % 1017,2 hPa 0,0 l/m 0 min 0 min 72 W/m 16,1 km/h (3 Bft) 100,00 %
03.05.2022 19:14 17,7 C 17,2 C 12,8 C 56 % 1017,2 hPa 0,0 l/m 0 min 0 min 62 W/m 12,9 km/h (3 Bft) 100,00 %
03.05.2022 19:16 17,6 C 17,2 C 12,8 C 57 % 1017,2 hPa 0,0 l/m 0 min 0 min 54 W/m 9,7 km/h (2 Bft) 100,00 %
03.05.2022 19:18 17,5 C 16,7 C 12,8 C 56 % 1017,2 hPa 0,0 l/m 0 min 0 min 55 W/m 12,9 km/h (3 Bft) 97,87 %
03.05.2022 19:20 17,4 C 16,7 C 12,8 C 57 % 1017,2 hPa 0,0 l/m 0 min 0 min 62 W/m 16,1 km/h (3 Bft) 100,00 %
03.05.2022 19:22 17,4 C 16,7 C 12,8 C 57 % 1017,2 hPa 0,0 l/m 0 min 0 min 61 W/m 16,1 km/h (3 Bft) 97,87 %
03.05.2022 19:24 17,3 C 16,7 C 12,8 C 57 % 1017,2 hPa 0,0 l/m 0 min 0 min 60 W/m 22,5 km/h (4 Bft) 100,00 %
03.05.2022 19:26 17,3 C 16,7 C 12,8 C 58 % 1017,2 hPa 0,0 l/m 0 min 0 min 58 W/m 19,3 km/h (3 Bft) 97,87 %
03.05.2022 19:28 17,2 C 16,7 C 12,8 C 58 % 1017,2 hPa 0,0 l/m 0 min 0 min 58 W/m 16,1 km/h (3 Bft) 97,87 %
03.05.2022 19:30 17,2 C 16,7 C 12,8 C 58 % 1017,1 hPa 0,0 l/m 0 min 0 min 56 W/m 16,1 km/h (3 Bft) 100,00 %
03.05.2022 19:32 17,2 C 16,7 C 12,8 C 58 % 1017,2 hPa 0,0 l/m 0 min 0 min 55 W/m 12,9 km/h (3 Bft) 93,48 %
03.05.2022 19:34 17,1 C 16,7 C 12,8 C 58 % 1017,2 hPa 0,0 l/m 0 min 0 min 54 W/m 25,7 km/h (4 Bft) 97,87 %
03.05.2022 19:36 17,1 C 16,7 C 12,8 C 59 % 1017,2 hPa 0,0 l/m 0 min 0 min 53 W/m 16,1 km/h (3 Bft) 95,74 %
03.05.2022 19:38 17,1 C 16,7 C 12,8 C 60 % 1017,1 hPa 0,0 l/m 0 min 0 min 51 W/m 9,7 km/h (2 Bft) 97,87 %
03.05.2022 19:40 17,0 C 16,7 C 12,8 C 60 % 1017,2 hPa 0,0 l/m 0 min 0 min 50 W/m 12,9 km/h (3 Bft) 95,74 %
03.05.2022 19:42 17,0 C 16,7 C 12,8 C 60 % 1017,1 hPa 0,0 l/m 0 min 0 min 49 W/m 22,5 km/h (4 Bft) 97,87 %
03.05.2022 19:44 16,9 C 16,1 C 12,8 C 60 % 1017,2 hPa 0,0 l/m 0 min 0 min 49 W/m 16,1 km/h (3 Bft) 97,83 %
03.05.2022 19:46 16,9 C 16,1 C 12,2 C 62 % 1017,2 hPa 0,0 l/m 0 min 0 min 49 W/m 19,3 km/h (3 Bft) 93,62 %
03.05.2022 19:48 16,8 C 16,1 C 12,2 C 62 % 1017,2 hPa 0,0 l/m 0 min 0 min 47 W/m 6,4 km/h (2 Bft) 97,87 %
03.05.2022 19:50 16,8 C 16,1 C 12,2 C 63 % 1017,2 hPa 0,0 l/m 0 min 0 min 47 W/m 19,3 km/h (3 Bft) 97,87 %
03.05.2022 19:52 16,8 C 16,1 C 12,2 C 63 % 1017,2 hPa 0,0 l/m 0 min 0 min 46 W/m 16,1 km/h (3 Bft) 95,74 %
03.05.2022 19:54 16,7 C 16,1 C 12,2 C 63 % 1017,3 hPa 0,0 l/m 0 min 0 min 45 W/m 16,1 km/h (3 Bft) 97,87 %
03.05.2022 19:56 16,7 C 16,1 C 12,2 C 64 % 1017,3 hPa 0,0 l/m 0 min 0 min 43 W/m 22,5 km/h (4 Bft) 97,83 %
03.05.2022 19:58 16,6 C 15,6 C 12,2 C 65 % 1017,3 hPa 0,0 l/m 0 min 0 min 42 W/m 16,1 km/h (3 Bft) 97,87 %
03.05.2022 20:00 16,5 C 15,6 C 12,2 C 66 % 1017,3 hPa 0,0 l/m 0 min 0 min 42 W/m 12,9 km/h (3 Bft) 97,87 %
03.05.2022 20:02 16,4 C 15,6 C 11,7 C 66 % 1017,3 hPa 0,0 l/m 0 min 0 min 40 W/m 19,3 km/h (3 Bft) 97,87 %
03.05.2022 20:04 16,4 C 15,6 C 11,7 C 67 % 1017,3 hPa 0,0 l/m 0 min 0 min 39 W/m 16,1 km/h (3 Bft) 100,00 %
03.05.2022 20:06 16,3 C 15,6 C 11,7 C 68 % 1017,4 hPa 0,0 l/m 0 min 0 min 38 W/m 16,1 km/h (3 Bft) 100,00 %
03.05.2022 20:08 16,2 C 15,6 C 11,7 C 68 % 1017,4 hPa 0,0 l/m 0 min 0 min 37 W/m 19,3 km/h (3 Bft) 100,00 %
03.05.2022 20:10 16,1 C 15,0 C 11,7 C 68 % 1017,4 hPa 0,0 l/m 0 min 0 min 36 W/m 16,1 km/h (3 Bft) 100,00 %
03.05.2022 20:12 16,0 C 15,0 C 11,7 C 69 % 1017,4 hPa 0,0 l/m 0 min 0 min 34 W/m 22,5 km/h (4 Bft) 100,00 %
03.05.2022 20:14 15,9 C 15,0 C 11,7 C 69 % 1017,4 hPa 0,0 l/m 0 min 0 min 33 W/m 19,3 km/h (3 Bft) 97,87 %
03.05.2022 20:16 15,8 C 15,0 C 11,1 C 69 % 1017,5 hPa 0,0 l/m 0 min 0 min 31 W/m 12,9 km/h (3 Bft) 100,00 %
03.05.2022 20:18 15,8 C 15,0 C 11,1 C 70 % 1017,5 hPa 0,0 l/m 0 min 0 min 29 W/m 12,9 km/h (3 Bft) 95,74 %
03.05.2022 20:20 15,7 C 15,0 C 11,1 C 70 % 1017,5 hPa 0,0 l/m 0 min 0 min 26 W/m 12,9 km/h (3 Bft) 100,00 %
03.05.2022 20:22 15,7 C 15,0 C 11,1 C 69 % 1017,6 hPa 0,0 l/m 0 min 0 min 26 W/m 12,9 km/h (3 Bft) 100,00 %
03.05.2022 20:24 15,7 C 15,0 C 11,1 C 70 % 1017,6 hPa 0,0 l/m 0 min 0 min 25 W/m 9,7 km/h (2 Bft) 97,87 %
03.05.2022 20:26 15,6 C 15,0 C 11,1 C 70 % 1017,6 hPa 0,0 l/m 0 min 0 min 25 W/m 12,9 km/h (3 Bft) 97,87 %
03.05.2022 20:28 15,6 C 14,4 C 11,1 C 70 % 1017,6 hPa 0,0 l/m 0 min 0 min 23 W/m 9,7 km/h (2 Bft) 97,87 %
03.05.2022 20:30 15,6 C 14,4 C 11,1 C 70 % 1017,6 hPa 0,0 l/m 0 min 0 min 22 W/m 12,9 km/h (3 Bft) 93,62 %
03.05.2022 20:32 15,5 C 14,4 C 11,1 C 70 % 1017,6 hPa 0,0 l/m 0 min 0 min 21 W/m 16,1 km/h (3 Bft) 95,65 %
03.05.2022 20:34 15,4 C 14,4 C 11,1 C 70 % 1017,6 hPa 0,0 l/m 0 min 0 min 19 W/m 22,5 km/h (4 Bft) 95,74 %
03.05.2022 20:36 15,4 C 14,4 C 11,1 C 71 % 1017,6 hPa 0,0 l/m 0 min 0 min 18 W/m 16,1 km/h (3 Bft) 95,74 %
03.05.2022 20:38 15,3 C 14,4 C 10,6 C 71 % 1017,6 hPa 0,0 l/m 0 min 0 min 16 W/m 19,3 km/h (3 Bft) 95,74 %
03.05.2022 20:40 15,3 C 14,4 C 10,6 C 71 % 1017,7 hPa 0,0 l/m 0 min 0 min 15 W/m 12,9 km/h (3 Bft) 95,74 %
03.05.2022 20:42 15,2 C 14,4 C 10,6 C 71 % 1017,6 hPa 0,0 l/m 0 min 0 min 12 W/m 12,9 km/h (3 Bft) 95,74 %
03.05.2022 20:44 15,2 C 14,4 C 10,6 C 71 % 1017,6 hPa 0,0 l/m 0 min 0 min 12 W/m 6,4 km/h (2 Bft) 93,48 %
03.05.2022 20:46 15,2 C 14,4 C 10,6 C 71 % 1017,6 hPa 0,0 l/m 0 min 0 min 11 W/m 19,3 km/h (3 Bft) 95,74 %
03.05.2022 20:48 15,2 C 14,4 C 10,6 C 71 % 1017,6 hPa 0,0 l/m 0 min 0 min 9 W/m 9,7 km/h (2 Bft) 95,74 %
03.05.2022 20:50 15,1 C 14,4 C 10,6 C 72 % 1017,7 hPa 0,0 l/m 0 min 0 min 9 W/m 19,3 km/h (3 Bft) 95,74 %
03.05.2022 20:52 15,1 C 14,4 C 10,6 C 72 % 1017,7 hPa 0,0 l/m 0 min 0 min 7 W/m 19,3 km/h (3 Bft) 95,74 %
03.05.2022 20:54 15,1 C 14,4 C 10,6 C 72 % 1017,7 hPa 0,0 l/m 0 min 0 min 5 W/m 16,1 km/h (3 Bft) 95,74 %
03.05.2022 20:56 15,1 C 14,4 C 10,6 C 72 % 1017,7 hPa 0,0 l/m 0 min 0 min 5 W/m 16,1 km/h (3 Bft) 95,65 %
03.05.2022 20:58 15,0 C 14,4 C 10,6 C 72 % 1017,7 hPa 0,0 l/m 0 min 0 min 4 W/m 16,1 km/h (3 Bft) 95,74 %
03.05.2022 21:00 15,0 C 13,9 C 10,6 C 72 % 1017,8 hPa 0,0 l/m 0 min 0 min 0 W/m 12,9 km/h (3 Bft) 95,74 %
03.05.2022 21:02 14,9 C 14,4 C 10,6 C 72 % 1017,8 hPa 0,0 l/m 0 min 0 min 0 W/m 9,7 km/h (2 Bft) 93,62 %
03.05.2022 21:04 14,9 C 13,9 C 10,6 C 72 % 1017,8 hPa 0,0 l/m 0 min 0 min 0 W/m 9,7 km/h (2 Bft) 97,87 %
03.05.2022 21:06 14,9 C 13,9 C 10,6 C 73 % 1017,9 hPa 0,0 l/m 0 min 0 min 0 W/m 12,9 km/h (3 Bft) 97,87 %
03.05.2022 21:08 14,8 C 13,9 C 10,0 C 73 % 1017,9 hPa 0,0 l/m 0 min 0 min 0 W/m 6,4 km/h (2 Bft) 97,83 %
03.05.2022 21:10 14,8 C 13,9 C 10,0 C 73 % 1017,9 hPa 0,0 l/m 0 min 0 min 0 W/m 16,1 km/h (3 Bft) 97,87 %
03.05.2022 21:12 14,7 C 13,9 C 10,0 C 74 % 1017,9 hPa 0,0 l/m 0 min 0 min 0 W/m 16,1 km/h (3 Bft) 97,87 %
03.05.2022 21:14 14,7 C 13,9 C 10,0 C 74 % 1017,9 hPa 0,0 l/m 0 min 0 min 0 W/m 12,9 km/h (3 Bft) 95,74 %
03.05.2022 21:16 14,7 C 13,9 C 10,0 C 74 % 1017,9 hPa 0,0 l/m 0 min 0 min 0 W/m 9,7 km/h (2 Bft) 95,74 %
03.05.2022 21:18 14,7 C 13,9 C 10,0 C 75 % 1017,9 hPa 0,0 l/m 0 min 0 min 0 W/m 9,7 km/h (2 Bft) 95,74 %
03.05.2022 21:20 14,7 C 13,9 C 10,0 C 75 % 1018,0 hPa 0,0 l/m 0 min 0 min 0 W/m 19,3 km/h (3 Bft) 97,83 %
03.05.2022 21:22 14,6 C 13,9 C 10,0 C 75 % 1018,0 hPa 0,0 l/m 0 min 0 min 0 W/m 22,5 km/h (4 Bft) 100,00 %
03.05.2022 21:24 14,6 C 13,3 C 10,0 C 75 % 1018,0 hPa 0,0 l/m 0 min 0 min 0 W/m 16,1 km/h (3 Bft) 97,87 %
03.05.2022 21:26 14,4 C 13,3 C 9,4 C 75 % 1018,0 hPa 0,0 l/m 0 min 0 min 0 W/m 12,9 km/h (3 Bft) 97,87 %
03.05.2022 21:28 14,3 C 13,3 C 9,4 C 75 % 1018,1 hPa 0,0 l/m 0 min 0 min 0 W/m 19,3 km/h (3 Bft) 97,87 %
03.05.2022 21:30 14,3 C 13,3 C 9,4 C 76 % 1018,0 hPa 0,0 l/m 0 min 0 min 0 W/m 16,1 km/h (3 Bft) 97,87 %
03.05.2022 21:32 14,3 C 13,3 C 9,4 C 76 % 1018,1 hPa 0,0 l/m 0 min 0 min 0 W/m 16,1 km/h (3 Bft) 97,83 %
03.05.2022 21:34 14,3 C 13,3 C 9,4 C 76 % 1018,1 hPa 0,0 l/m 0 min 0 min 0 W/m 16,1 km/h (3 Bft) 97,87 %
03.05.2022 21:36 14,2 C 13,3 C 9,4 C 77 % 1018,1 hPa 0,0 l/m 0 min 0 min 0 W/m 12,9 km/h (3 Bft) 95,74 %
03.05.2022 21:38 14,1 C 13,3 C 9,4 C 77 % 1018,2 hPa 0,0 l/m 0 min 0 min 0 W/m 9,7 km/h (2 Bft) 97,87 %
03.05.2022 21:40 14,1 C 13,3 C 9,4 C 77 % 1018,2 hPa 0,0 l/m 0 min 0 min 0 W/m 9,7 km/h (2 Bft) 95,74 %
03.05.2022 21:42 14,0 C 13,3 C 9,4 C 77 % 1018,2 hPa 0,0 l/m 0 min 0 min 0 W/m 6,4 km/h (2 Bft) 97,83 %
03.05.2022 21:44 13,9 C 12,8 C 9,4 C 77 % 1018,2 hPa 0,0 l/m 0 min 0 min 0 W/m 12,9 km/h (3 Bft) 97,87 %
03.05.2022 21:46 13,9 C 12,8 C 9,4 C 78 % 1018,2 hPa 0,0 l/m 0 min 0 min 0 W/m 9,7 km/h (2 Bft) 97,87 %
03.05.2022 21:48 13,9 C 12,8 C 9,4 C 78 % 1018,3 hPa 0,0 l/m 0 min 0 min 0 W/m 12,9 km/h (3 Bft) 95,74 %
03.05.2022 21:50 13,8 C 12,8 C 9,4 C 78 % 1018,3 hPa 0,0 l/m 0 min 0 min 0 W/m 9,7 km/h (2 Bft) 97,87 %
03.05.2022 21:52 13,8 C 12,8 C 9,4 C 78 % 1018,4 hPa 0,0 l/m 0 min 0 min 0 W/m 12,9 km/h (3 Bft) 100,00 %
03.05.2022 21:54 13,7 C 12,8 C 9,4 C 78 % 1018,4 hPa 0,0 l/m 0 min 0 min 0 W/m 9,7 km/h (2 Bft) 100,00 %
03.05.2022 21:56 13,7 C 12,8 C 8,9 C 78 % 1018,4 hPa 0,0 l/m 0 min 0 min 0 W/m 12,9 km/h (3 Bft) 100,00 %
03.05.2022 21:58 13,7 C 12,8 C 8,9 C 78 % 1018,4 hPa 0,0 l/m 0 min 0 min 0 W/m 9,7 km/h (2 Bft) 100,00 %
03.05.2022 22:00 13,6 C 12,8 C 8,9 C 78 % 1018,4 hPa 0,0 l/m 0 min 0 min 0 W/m 6,4 km/h (2 Bft) 100,00 %
03.05.2022 22:02 13,6 C 12,8 C 8,9 C 78 % 1018,4 hPa 0,0 l/m 0 min 0 min 0 W/m 6,4 km/h (2 Bft) 95,74 %
03.05.2022 22:04 13,6 C 12,8 C 8,9 C 79 % 1018,4 hPa 0,0 l/m 0 min 0 min 0 W/m 6,4 km/h (2 Bft) 100,00 %
03.05.2022 22:06 13,5 C 12,2 C 8,9 C 79 % 1018,5 hPa 0,0 l/m 0 min 0 min 0 W/m 6,4 km/h (2 Bft) 100,00 %
03.05.2022 22:08 13,5 C 12,2 C 8,9 C 79 % 1018,5 hPa 0,0 l/m 0 min 0 min 0 W/m 9,7 km/h (2 Bft) 100,00 %
03.05.2022 22:10 13,4 C 12,2 C 8,9 C 79 % 1018,5 hPa 0,0 l/m 0 min 0 min 0 W/m 6,4 km/h (2 Bft) 100,00 %
03.05.2022 22:12 13,4 C 12,2 C 8,9 C 79 % 1018,5 hPa 0,0 l/m 0 min 0 min 0 W/m 9,7 km/h (2 Bft) 100,00 %
03.05.2022 22:14 13,4 C 12,2 C 8,9 C 79 % 1018,5 hPa 0,0 l/m 0 min 0 min 0 W/m 9,7 km/h (2 Bft) 100,00 %
03.05.2022 22:16 13,3 C 12,2 C 8,9 C 79 % 1018,5 hPa 0,0 l/m 0 min 0 min 0 W/m 16,1 km/h (3 Bft) 100,00 %
03.05.2022 22:18 13,3 C 12,2 C 8,3 C 79 % 1018,5 hPa 0,0 l/m 0 min 0 min 0 W/m 3,2 km/h (1 Bft) 100,00 %
03.05.2022 22:20 13,2 C 12,2 C 8,3 C 80 % 1018,6 hPa 0,0 l/m 0 min 0 min 0 W/m 6,4 km/h (2 Bft) 100,00 %
03.05.2022 22:22 13,2 C 12,2 C 8,3 C 80 % 1018,5 hPa 0,0 l/m 0 min 0 min 0 W/m 6,4 km/h (2 Bft) 100,00 %
03.05.2022 22:24 13,1 C 12,2 C 8,3 C 80 % 1018,6 hPa 0,0 l/m 0 min 0 min 0 W/m 12,9 km/h (3 Bft) 100,00 %
03.05.2022 22:26 13,1 C 12,2 C 8,3 C 80 % 1018,6 hPa 0,0 l/m 0 min 0 min 0 W/m 9,7 km/h (2 Bft) 100,00 %
03.05.2022 22:28 13,0 C 12,2 C 8,3 C 80 % 1018,6 hPa 0,0 l/m 0 min 0 min 0 W/m 6,4 km/h (2 Bft) 97,87 %
03.05.2022 22:30 12,9 C 11,7 C 8,3 C 80 % 1018,6 hPa 0,0 l/m 0 min 0 min 0 W/m 9,7 km/h (2 Bft) 100,00 %
03.05.2022 22:32 12,9 C 11,7 C 8,3 C 80 % 1018,7 hPa 0,0 l/m 0 min 0 min 0 W/m 12,9 km/h (3 Bft) 95,74 %
03.05.2022 22:34 12,8 C 11,7 C 8,3 C 80 % 1018,6 hPa 0,0 l/m 0 min 0 min 0 W/m 16,1 km/h (3 Bft) 100,00 %
03.05.2022 22:36 12,8 C 11,7 C 8,3 C 80 % 1018,7 hPa 0,0 l/m 0 min 0 min 0 W/m 9,7 km/h (2 Bft) 100,00 %
03.05.2022 22:38 12,7 C 11,7 C 8,3 C 80 % 1018,7 hPa 0,0 l/m 0 min 0 min 0 W/m 9,7 km/h (2 Bft) 100,00 %
03.05.2022 22:40 12,7 C 11,7 C 8,3 C 81 % 1018,7 hPa 0,0 l/m 0 min 0 min 0 W/m 16,1 km/h (3 Bft) 100,00 %
03.05.2022 22:42 12,6 C 11,7 C 8,3 C 81 % 1018,7 hPa 0,0 l/m 0 min 0 min 0 W/m 6,4 km/h (2 Bft) 97,83 %
03.05.2022 22:44 12,6 C 11,7 C 8,3 C 81 % 1018,7 hPa 0,0 l/m 0 min 0 min 0 W/m 12,9 km/h (3 Bft) 100,00 %
03.05.2022 22:46 12,6 C 11,7 C 8,3 C 81 % 1018,8 hPa 0,0 l/m 0 min 0 min 0 W/m 9,7 km/h (2 Bft) 95,74 %
03.05.2022 22:48 12,6 C 11,7 C 8,3 C 81 % 1018,7 hPa 0,0 l/m 0 min 0 min 0 W/m 9,7 km/h (2 Bft) 97,87 %
03.05.2022 22:50 12,5 C 11,7 C 7,8 C 81 % 1018,8 hPa 0,0 l/m 0 min 0 min 0 W/m 9,7 km/h (2 Bft) 97,87 %
03.05.2022 22:52 12,5 C 11,7 C 7,8 C 81 % 1018,8 hPa 0,0 l/m 0 min 0 min 0 W/m 9,7 km/h (2 Bft) 97,87 %
03.05.2022 22:54 12,4 C 11,7 C 7,8 C 81 % 1018,7 hPa 0,0 l/m 0 min 0 min 0 W/m 16,1 km/h (3 Bft) 97,83 %
03.05.2022 22:56 12,4 C 11,7 C 7,8 C 81 % 1018,7 hPa 0,0 l/m 0 min 0 min 0 W/m 12,9 km/h (3 Bft) 97,87 %
03.05.2022 22:58 12,3 C 11,7 C 7,8 C 81 % 1018,8 hPa 0,0 l/m 0 min 0 min 0 W/m 12,9 km/h (3 Bft) 97,87 %
03.05.2022 23:00 12,3 C 11,7 C 7,8 C 81 % 1018,8 hPa 0,0 l/m 0 min 0 min 0 W/m 22,5 km/h (4 Bft) 97,87 %
03.05.2022 23:02 12,3 C 11,7 C 7,8 C 81 % 1018,8 hPa 0,0 l/m 0 min 0 min 0 W/m 9,7 km/h (2 Bft) 97,87 %
03.05.2022 23:04 12,3 C 11,7 C 7,8 C 81 % 1018,8 hPa 0,0 l/m 0 min 0 min 0 W/m 6,4 km/h (2 Bft) 95,74 %
03.05.2022 23:06 12,3 C 11,1 C 7,8 C 81 % 1018,8 hPa 0,0 l/m 0 min 0 min 0 W/m 9,7 km/h (2 Bft) 95,65 %
03.05.2022 23:08 12,2 C 11,1 C 7,8 C 81 % 1018,8 hPa 0,0 l/m 0 min 0 min 0 W/m 9,7 km/h (2 Bft) 95,74 %
03.05.2022 23:10 12,2 C 11,1 C 7,8 C 82 % 1018,8 hPa 0,0 l/m 0 min 0 min 0 W/m 9,7 km/h (2 Bft) 95,74 %
03.05.2022 23:12 12,1 C 11,1 C 7,8 C 82 % 1018,8 hPa 0,0 l/m 0 min 0 min 0 W/m 12,9 km/h (3 Bft) 95,74 %
03.05.2022 23:14 12,1 C 11,1 C 7,8 C 82 % 1018,8 hPa 0,0 l/m 0 min 0 min 0 W/m 6,4 km/h (2 Bft) 93,62 %
03.05.2022 23:16 12,1 C 11,1 C 7,8 C 82 % 1018,8 hPa 0,0 l/m 0 min 0 min 0 W/m 12,9 km/h (3 Bft) 93,62 %
03.05.2022 23:18 12,0 C 11,1 C 7,8 C 82 % 1018,8 hPa 0,0 l/m 0 min 0 min 0 W/m 3,2 km/h (1 Bft) 95,65 %
03.05.2022 23:20 12,0 C 11,1 C 7,8 C 82 % 1018,8 hPa 0,0 l/m 0 min 0 min 0 W/m 9,7 km/h (2 Bft) 98,00 %
03.05.2022 23:22 11,9 C 11,1 C 7,8 C 82 % 1018,8 hPa 0,0 l/m 0 min 0 min 0 W/m 3,2 km/h (1 Bft) 97,87 %
03.05.2022 23:24 11,9 C 11,1 C 7,8 C 82 % 1018,8 hPa 0,0 l/m 0 min 0 min 0 W/m 9,7 km/h (2 Bft) 97,87 %
03.05.2022 23:26 11,9 C 11,1 C 7,8 C 82 % 1018,8 hPa 0,0 l/m 0 min 0 min 0 W/m 9,7 km/h (2 Bft) 97,87 %
03.05.2022 23:28 11,9 C 11,1 C 7,8 C 82 % 1018,8 hPa 0,0 l/m 0 min 0 min 0 W/m 9,7 km/h (2 Bft) 97,87 %
03.05.2022 23:30 11,8 C 11,1 C 7,8 C 82 % 1018,8 hPa 0,0 l/m 0 min 0 min 0 W/m 6,4 km/h (2 Bft) 97,87 %
03.05.2022 23:32 11,8 C 11,1 C 7,8 C 82 % 1018,8 hPa 0,0 l/m 0 min 0 min 0 W/m 6,4 km/h (2 Bft) 97,87 %
03.05.2022 23:34 11,8 C 11,1 C 7,2 C 82 % 1018,8 hPa 0,0 l/m 0 min 0 min 0 W/m 9,7 km/h (2 Bft) 100,00 %
03.05.2022 23:36 11,8 C 11,1 C 7,2 C 82 % 1018,9 hPa 0,0 l/m 0 min 0 min 0 W/m 6,4 km/h (2 Bft) 97,87 %
03.05.2022 23:38 11,8 C 10,6 C 7,2 C 82 % 1018,9 hPa 0,0 l/m 0 min 0 min 0 W/m 6,4 km/h (2 Bft) 100,00 %
03.05.2022 23:40 11,7 C 10,6 C 7,2 C 82 % 1018,9 hPa 0,0 l/m 0 min 0 min 0 W/m 6,4 km/h (2 Bft) 100,00 %
03.05.2022 23:42 11,7 C 10,6 C 7,2 C 82 % 1018,9 hPa 0,0 l/m 0 min 0 min 0 W/m 3,2 km/h (1 Bft) 100,00 %
03.05.2022 23:44 11,7 C 10,6 C 7,2 C 82 % 1018,9 hPa 0,0 l/m 0 min 0 min 0 W/m 6,4 km/h (2 Bft) 100,00 %
03.05.2022 23:46 11,7 C 10,6 C 7,2 C 82 % 1018,9 hPa 0,0 l/m 0 min 0 min 0 W/m 6,4 km/h (2 Bft) 100,00 %
03.05.2022 23:48 11,6 C 10,6 C 7,2 C 82 % 1018,9 hPa 0,0 l/m 0 min 0 min 0 W/m 6,4 km/h (2 Bft) 97,83 %
03.05.2022 23:50 11,6 C 10,6 C 7,2 C 82 % 1018,9 hPa 0,0 l/m 0 min 0 min 0 W/m 9,7 km/h (2 Bft) 100,00 %
03.05.2022 23:52 11,6 C 10,6 C 7,2 C 82 % 1018,9 hPa 0,0 l/m 0 min 0 min 0 W/m 6,4 km/h (2 Bft) 100,00 %
03.05.2022 23:54 11,5 C 10,6 C 7,2 C 82 % 1018,9 hPa 0,0 l/m 0 min 0 min 0 W/m 6,4 km/h (2 Bft) 95,74 %
03.05.2022 23:56 11,5 C 10,6 C 7,2 C 83 % 1018,9 hPa 0,0 l/m 0 min 0 min 0 W/m 9,7 km/h (2 Bft) 97,87 %
03.05.2022 23:58 11,4 C 10,6 C 7,2 C 83 % 1018,9 hPa 0,0 l/m 0 min 0 min 0 W/m 9,7 km/h (2 Bft) 97,87 %
_ Min-Zeit 06:36 05:22 05:26 13:58 18:36 - - - - 02:52 00:02
Minimum _ 7,7 C 7,2 C 3,9 C 45 % 1017,0 hPa - - - - 0,0 km/h (0 Bft) 15,38 %
_ Max-Zeit 17:02 16:40 12:42 23:56 11:14 00:00 12:07 00:00 13:36 15:02 00:08
Maximum _ 20,5 C 27,2 C 22,2 C 83 % 1019,5 hPa 0,0 l/m 3 min 0 min 889 W/m 35,4 km/h
W (5 Bft)
100,00 %
Durchschnitt _ 14,1 C 15,4 C 10,3 C 65 % 1018,3 hPa #0,0 l/m #10:16 h #0 min. 471 W/m 10,9 km/h (2 Bft) 97,40 %
© 2022 W. Hausmann